Time,TemperatureF,DewpointF,PressureIn,WindDirection,WindDirectionDegrees,WindSpeedMPH,WindSpeedGustMPH,Humidity,HourlyPrecipIn,Conditions,Clouds,dailyrainin,SoftwareType,DateUTC
2013-06-25 00:00:00,71.6,64.0,29.83,North,0,0.0,0.0,77,0.00,,,0.02,WUHU216HW,2013-06-25 04:00:00,
2013-06-25 00:01:00,71.6,64.0,29.83,North,0,0.0,0.0,77,0.00,,,0.00,WUHU216HW,2013-06-25 04:01:00,
2013-06-25 00:06:00,71.3,63.6,29.83,North,0,0.0,0.0,77,0.00,,,0.00,WUHU216HW,2013-06-25 04:06:00,
2013-06-25 00:11:00,71.3,64.1,29.83,North,0,0.0,0.0,78,0.00,,,0.00,WUHU216HW,2013-06-25 04:11:00,
2013-06-25 00:16:00,71.3,64.1,29.83,North,0,0.0,0.0,78,0.00,,,0.00,WUHU216HW,2013-06-25 04:16:00,
2013-06-25 00:21:00,71.5,64.6,29.83,North,0,0.0,0.0,79,0.00,,,0.00,WUHU216HW,2013-06-25 04:21:00,
2013-06-25 00:22:00,71.5,64.6,29.83,North,0,0.0,0.0,79,0.00,,,0.00,WUHU216HW,2013-06-25 04:22:00,
2013-06-25 00:26:00,71.6,65.2,29.83,North,0,0.0,0.0,80,0.00,,,0.00,WUHU216HW,2013-06-25 04:26:00,
2013-06-25 00:27:00,71.6,65.2,29.83,North,0,0.0,0.0,80,0.00,,,0.00,WUHU216HW,2013-06-25 04:27:00,
2013-06-25 00:31:00,71.8,65.3,29.83,North,0,0.0,0.0,80,0.00,,,0.00,WUHU216HW,2013-06-25 04:31:00,
2013-06-25 00:32:00,72.0,65.5,29.83,North,0,0.0,0.0,80,0.00,,,0.00,WUHU216HW,2013-06-25 04:32:00,
2013-06-25 00:37:00,72.0,65.5,29.83,North,0,0.0,0.0,80,0.00,,,0.00,WUHU216HW,2013-06-25 04:37:00,
2013-06-25 00:42:00,72.2,65.7,29.83,North,0,0.0,0.0,80,0.00,,,0.00,WUHU216HW,2013-06-25 04:42:00,
2013-06-25 00:43:00,72.2,65.7,29.83,North,0,0.0,0.0,80,0.00,,,0.00,WUHU216HW,2013-06-25 04:43:00,
2013-06-25 00:47:00,72.2,65.7,29.82,North,0,0.0,0.0,80,0.00,,,0.00,WUHU216HW,2013-06-25 04:47:00,
2013-06-25 00:48:00,72.2,65.7,29.82,North,0,0.0,0.0,80,0.00,,,0.00,WUHU216HW,2013-06-25 04:48:00,
2013-06-25 00:52:00,72.2,65.7,29.83,North,0,0.0,0.0,80,0.00,,,0.00,WUHU216HW,2013-06-25 04:52:00,
2013-06-25 00:53:00,72.4,65.9,29.83,North,0,0.0,0.0,80,0.00,,,0.00,WUHU216HW,2013-06-25 04:53:00,
2013-06-25 00:57:00,72.4,65.9,29.82,North,0,0.0,0.0,80,0.00,,,0.00,WUHU216HW,2013-06-25 04:57:00,
2013-06-25 00:58:00,72.4,65.9,29.83,North,0,0.0,0.0,80,0.00,,,0.00,WUHU216HW,2013-06-25 04:58:00,
2013-06-25 01:02:00,72.4,66.3,29.82,North,0,0.0,0.0,81,0.00,,,0.00,WUHU216HW,2013-06-25 05:02:00,
2013-06-25 01:03:00,72.4,66.3,29.82,North,0,0.0,0.0,81,0.00,,,0.00,WUHU216HW,2013-06-25 05:03:00,
2013-06-25 01:07:00,72.5,66.4,29.82,North,0,0.0,0.0,81,0.00,,,0.00,WUHU216HW,2013-06-25 05:07:00,
2013-06-25 01:08:00,72.5,66.8,29.82,North,0,0.0,0.0,82,0.00,,,0.00,WUHU216HW,2013-06-25 05:08:00,
2013-06-25 01:09:00,72.5,66.4,29.82,North,0,0.0,0.0,81,0.00,,,0.00,WUHU216HW,2013-06-25 05:09:00,
2013-06-25 01:12:00,72.7,67.0,29.82,North,0,0.0,0.0,82,0.00,,,0.00,WUHU216HW,2013-06-25 05:12:00,
2013-06-25 01:13:00,72.7,67.0,29.82,North,0,0.0,0.0,82,0.00,,,0.00,WUHU216HW,2013-06-25 05:13:00,
2013-06-25 01:14:00,72.7,67.0,29.82,North,0,0.0,0.0,82,0.00,,,0.00,WUHU216HW,2013-06-25 05:14:00,
2013-06-25 01:18:00,72.7,67.2,29.82,North,0,0.0,0.0,83,0.00,,,0.00,WUHU216HW,2013-06-25 05:18:00,
2013-06-25 01:19:00,72.9,67.4,29.82,North,0,0.0,0.0,83,0.00,,,0.00,WUHU216HW,2013-06-25 05:19:00,
2013-06-25 01:23:00,73.1,67.6,29.82,North,0,0.0,0.0,83,0.00,,,0.00,WUHU216HW,2013-06-25 05:23:00,
2013-06-25 01:24:00,73.1,67.6,29.82,North,0,0.0,0.0,83,0.00,,,0.00,WUHU216HW,2013-06-25 05:24:00,
2013-06-25 01:28:00,73.1,67.6,29.82,North,0,0.0,0.0,83,0.00,,,0.00,WUHU216HW,2013-06-25 05:28:00,
2013-06-25 01:29:00,73.1,67.6,29.82,North,0,0.0,0.0,83,0.00,,,0.00,WUHU216HW,2013-06-25 05:29:00,
2013-06-25 01:33:00,73.1,67.6,29.82,North,0,0.0,0.0,83,0.00,,,0.00,WUHU216HW,2013-06-25 05:33:00,
2013-06-25 01:34:00,73.1,67.6,29.82,North,0,0.0,0.0,83,0.00,,,0.00,WUHU216HW,2013-06-25 05:34:00,
2013-06-25 01:35:00,73.1,67.6,29.82,North,0,0.0,0.0,83,0.00,,,0.00,WUHU216HW,2013-06-25 05:35:00,
2013-06-25 01:38:00,72.9,67.4,29.82,North,0,0.0,0.0,83,0.00,,,0.00,WUHU216HW,2013-06-25 05:38:00,
2013-06-25 01:39:00,72.9,67.4,29.81,North,0,0.0,0.0,83,0.00,,,0.00,WUHU216HW,2013-06-25 05:39:00,
2013-06-25 01:40:00,72.9,67.4,29.82,North,0,0.0,0.0,83,0.00,,,0.00,WUHU216HW,2013-06-25 05:40:00,
2013-06-25 01:43:00,72.7,67.2,29.82,North,0,0.0,0.0,83,0.00,,,0.00,WUHU216HW,2013-06-25 05:43:00,
2013-06-25 01:44:00,72.7,67.2,29.81,North,0,0.0,0.0,83,0.00,,,0.00,WUHU216HW,2013-06-25 05:44:00,
2013-06-25 01:45:00,72.7,67.0,29.81,North,0,0.0,0.0,82,0.00,,,0.00,WUHU216HW,2013-06-25 05:45:00,
2013-06-25 01:48:00,72.5,66.8,29.81,North,0,0.0,0.0,82,0.00,,,0.00,WUHU216HW,2013-06-25 05:48:00,
2013-06-25 01:49:00,72.5,66.8,29.81,North,0,0.0,0.0,82,0.00,,,0.00,WUHU216HW,2013-06-25 05:49:00,
2013-06-25 01:50:00,72.5,66.8,29.81,North,0,0.0,0.0,82,0.00,,,0.00,WUHU216HW,2013-06-25 05:50:00,
2013-06-25 01:53:00,72.4,66.6,29.81,North,0,0.0,0.0,82,0.00,,,0.00,WUHU216HW,2013-06-25 05:53:00,
2013-06-25 01:54:00,72.4,66.9,29.81,North,0,0.0,0.0,83,0.00,,,0.00,WUHU216HW,2013-06-25 05:54:00,
2013-06-25 01:55:00,72.4,66.9,29.81,North,0,0.0,0.0,83,0.00,,,0.00,WUHU216HW,2013-06-25 05:55:00,
2013-06-25 01:58:00,72.4,66.6,29.81,North,0,0.0,0.0,82,0.00,,,0.00,WUHU216HW,2013-06-25 05:58:00,
2013-06-25 01:59:00,72.4,66.9,29.81,North,0,0.0,0.0,83,0.00,,,0.00,WUHU216HW,2013-06-25 05:59:00,
2013-06-25 02:00:00,72.4,66.9,29.81,North,0,0.0,0.0,83,0.00,,,0.00,WUHU216HW,2013-06-25 06:00:00,
2013-06-25 02:01:00,72.4,66.9,29.81,North,0,0.0,0.0,83,0.00,,,0.00,WUHU216HW,2013-06-25 06:01:00,
2013-06-25 02:03:00,72.4,66.9,29.81,North,0,0.0,0.0,83,0.00,,,0.00,WUHU216HW,2013-06-25 06:03:00,
2013-06-25 02:04:00,72.4,66.9,29.81,North,0,0.0,0.0,83,0.00,,,0.00,WUHU216HW,2013-06-25 06:04:00,
2013-06-25 02:05:00,72.4,66.9,29.81,North,0,0.0,0.0,83,0.00,,,0.00,WUHU216HW,2013-06-25 06:05:00,
2013-06-25 02:06:00,72.2,66.7,29.81,North,0,0.0,0.0,83,0.00,,,0.00,WUHU216HW,2013-06-25 06:06:00,
2013-06-25 02:08:00,72.4,66.9,29.81,North,0,0.0,0.0,83,0.00,,,0.00,WUHU216HW,2013-06-25 06:08:00,
2013-06-25 02:10:00,72.4,66.9,29.81,North,0,0.0,0.0,83,0.00,,,0.00,WUHU216HW,2013-06-25 06:10:00,
2013-06-25 02:11:00,72.2,66.7,29.81,North,0,0.0,0.0,83,0.00,,,0.00,WUHU216HW,2013-06-25 06:11:00,
2013-06-25 02:12:00,72.4,66.9,29.81,North,0,0.0,0.0,83,0.00,,,0.00,WUHU216HW,2013-06-25 06:12:00,
2013-06-25 02:13:00,72.2,66.7,29.81,North,0,0.0,0.0,83,0.00,,,0.00,WUHU216HW,2013-06-25 06:13:00,
2013-06-25 02:15:00,72.2,66.7,29.81,North,0,0.0,0.0,83,0.00,,,0.00,WUHU216HW,2013-06-25 06:15:00,
2013-06-25 02:16:00,72.2,66.7,29.81,North,0,0.0,0.0,83,0.00,,,0.00,WUHU216HW,2013-06-25 06:16:00,
2013-06-25 02:17:00,72.2,66.7,29.81,North,0,0.0,0.0,83,0.00,,,0.00,WUHU216HW,2013-06-25 06:17:00,
2013-06-25 02:19:00,72.2,66.7,29.81,North,0,0.0,0.0,83,0.00,,,0.00,WUHU216HW,2013-06-25 06:19:00,
2013-06-25 02:20:00,72.2,66.7,29.81,North,0,0.0,0.0,83,0.00,,,0.00,WUHU216HW,2013-06-25 06:20:00,
2013-06-25 02:21:00,72.2,67.1,29.81,North,0,0.0,0.0,84,0.00,,,0.00,WUHU216HW,2013-06-25 06:21:00,
2013-06-25 02:22:00,72.2,67.1,29.81,North,0,0.0,0.0,84,0.00,,,0.00,WUHU216HW,2013-06-25 06:22:00,
2013-06-25 02:24:00,72.2,67.1,29.81,North,0,0.0,0.0,84,0.00,,,0.00,WUHU216HW,2013-06-25 06:24:00,
2013-06-25 02:25:00,72.2,67.1,29.81,North,0,0.0,0.0,84,0.00,,,0.00,WUHU216HW,2013-06-25 06:25:00,
2013-06-25 02:26:00,72.2,67.1,29.81,North,0,0.0,0.0,84,0.00,,,0.00,WUHU216HW,2013-06-25 06:26:00,
2013-06-25 02:27:00,72.2,67.1,29.81,North,0,0.0,0.0,84,0.00,,,0.00,WUHU216HW,2013-06-25 06:27:00,
2013-06-25 02:29:00,72.2,67.1,29.81,North,0,0.0,0.0,84,0.00,,,0.00,WUHU216HW,2013-06-25 06:29:00,
2013-06-25 02:30:00,72.2,67.1,29.81,North,0,0.0,0.0,84,0.00,,,0.00,WUHU216HW,2013-06-25 06:30:00,
2013-06-25 02:31:00,72.2,67.1,29.81,North,0,0.0,0.0,84,0.00,,,0.00,WUHU216HW,2013-06-25 06:31:00,
2013-06-25 02:32:00,72.2,67.1,29.81,North,0,0.0,0.0,84,0.00,,,0.00,WUHU216HW,2013-06-25 06:32:00,
2013-06-25 02:34:00,72.2,67.1,29.81,North,0,0.0,0.0,84,0.00,,,0.00,WUHU216HW,2013-06-25 06:34:00,
2013-06-25 02:36:00,72.2,67.1,29.81,North,0,0.0,0.0,84,0.00,,,0.00,WUHU216HW,2013-06-25 06:36:00,
2013-06-25 02:37:00,72.2,67.1,29.81,North,0,0.0,0.0,84,0.00,,,0.00,WUHU216HW,2013-06-25 06:37:00,
2013-06-25 02:39:00,72.2,67.1,29.81,North,0,0.0,0.0,84,0.00,,,0.00,WUHU216HW,2013-06-25 06:39:00,
2013-06-25 02:41:00,72.2,67.1,29.81,North,0,0.0,0.0,84,0.00,,,0.00,WUHU216HW,2013-06-25 06:41:00,
2013-06-25 02:42:00,72.2,67.1,29.81,North,0,0.0,0.0,84,0.00,,,0.00,WUHU216HW,2013-06-25 06:42:00,
2013-06-25 02:43:00,72.2,67.1,29.81,North,0,0.0,0.0,84,0.00,,,0.00,WUHU216HW,2013-06-25 06:43:00,
2013-06-25 02:44:00,72.2,67.1,29.81,North,0,0.0,0.0,84,0.00,,,0.00,WUHU216HW,2013-06-25 06:44:00,
2013-06-25 02:46:00,72.2,67.1,29.81,North,0,0.0,0.0,84,0.00,,,0.00,WUHU216HW,2013-06-25 06:46:00,
2013-06-25 02:47:00,72.2,67.1,29.81,North,0,0.0,0.0,84,0.00,,,0.00,WUHU216HW,2013-06-25 06:47:00,
2013-06-25 02:48:00,72.2,67.1,29.81,North,0,0.0,0.0,84,0.00,,,0.00,WUHU216HW,2013-06-25 06:48:00,
2013-06-25 02:50:00,72.2,67.1,29.81,North,0,0.0,0.0,84,0.00,,,0.00,WUHU216HW,2013-06-25 06:50:00,
2013-06-25 02:51:00,72.2,67.1,29.81,North,0,0.0,0.0,84,0.00,,,0.00,WUHU216HW,2013-06-25 06:51:00,
2013-06-25 02:52:00,72.2,67.1,29.81,North,0,0.0,0.0,84,0.00,,,0.00,WUHU216HW,2013-06-25 06:52:00,
2013-06-25 02:54:00,72.2,67.4,29.81,North,0,0.0,0.0,85,0.00,,,0.00,WUHU216HW,2013-06-25 06:54:00,
2013-06-25 02:55:00,72.2,67.4,29.81,North,0,0.0,0.0,85,0.00,,,0.00,WUHU216HW,2013-06-25 06:55:00,
2013-06-25 02:57:00,72.2,67.4,29.81,North,0,0.0,0.0,85,0.00,,,0.00,WUHU216HW,2013-06-25 06:57:00,
2013-06-25 02:58:00,72.2,67.4,29.81,North,0,0.0,0.0,85,0.00,,,0.00,WUHU216HW,2013-06-25 06:58:00,
2013-06-25 02:59:00,72.2,67.4,29.81,North,0,0.0,0.0,85,0.00,,,0.00,WUHU216HW,2013-06-25 06:59:00,
2013-06-25 03:00:00,72.2,67.4,29.81,North,0,0.0,0.0,85,0.00,,,0.00,WUHU216HW,2013-06-25 07:00:00,
2013-06-25 03:02:00,72.2,67.4,29.81,North,0,0.0,0.0,85,0.00,,,0.00,WUHU216HW,2013-06-25 07:02:00,
2013-06-25 03:03:00,72.2,67.4,29.81,North,0,0.0,0.0,85,0.00,,,0.00,WUHU216HW,2013-06-25 07:03:00,
2013-06-25 03:04:00,72.2,67.4,29.81,North,0,0.0,0.0,85,0.00,,,0.00,WUHU216HW,2013-06-25 07:04:00,
2013-06-25 03:05:00,72.2,67.4,29.81,North,0,0.0,0.0,85,0.00,,,0.00,WUHU216HW,2013-06-25 07:05:00,
2013-06-25 03:07:00,72.4,67.6,29.81,North,0,0.0,0.0,85,0.00,,,0.00,WUHU216HW,2013-06-25 07:07:00,
2013-06-25 03:08:00,72.4,67.6,29.81,North,0,0.0,0.0,85,0.00,,,0.00,WUHU216HW,2013-06-25 07:08:00,
2013-06-25 03:09:00,72.4,67.6,29.81,North,0,0.0,0.0,85,0.00,,,0.00,WUHU216HW,2013-06-25 07:09:00,
2013-06-25 03:10:00,72.4,67.6,29.81,North,0,0.0,0.0,85,0.00,,,0.00,WUHU216HW,2013-06-25 07:10:00,
2013-06-25 03:12:00,72.4,67.6,29.81,North,0,0.0,0.0,85,0.00,,,0.00,WUHU216HW,2013-06-25 07:12:00,
2013-06-25 03:13:00,72.4,67.6,29.81,North,0,0.0,0.0,85,0.00,,,0.00,WUHU216HW,2013-06-25 07:13:00,
2013-06-25 03:14:00,72.4,67.6,29.81,North,0,0.0,0.0,85,0.00,,,0.00,WUHU216HW,2013-06-25 07:14:00,
2013-06-25 03:17:00,72.4,67.6,29.81,North,0,0.0,0.0,85,0.00,,,0.00,WUHU216HW,2013-06-25 07:17:00,
2013-06-25 03:18:00,72.4,67.6,29.81,North,0,0.0,0.0,85,0.00,,,0.00,WUHU216HW,2013-06-25 07:18:00,
2013-06-25 03:19:00,72.4,67.6,29.81,North,0,0.0,0.0,85,0.00,,,0.00,WUHU216HW,2013-06-25 07:19:00,
2013-06-25 03:20:00,72.4,67.6,29.80,North,0,0.0,0.0,85,0.00,,,0.00,WUHU216HW,2013-06-25 07:20:00,
2013-06-25 03:22:00,72.5,67.4,29.80,North,0,0.0,0.0,84,0.00,,,0.00,WUHU216HW,2013-06-25 07:22:00,
2013-06-25 03:23:00,72.5,67.4,29.80,North,0,0.0,0.0,84,0.00,,,0.00,WUHU216HW,2013-06-25 07:23:00,
2013-06-25 03:24:00,72.5,67.4,29.80,North,0,0.0,0.0,84,0.00,,,0.00,WUHU216HW,2013-06-25 07:24:00,
2013-06-25 03:25:00,72.5,67.4,29.80,North,0,0.0,0.0,84,0.00,,,0.00,WUHU216HW,2013-06-25 07:25:00,
2013-06-25 03:27:00,72.4,67.2,29.80,North,0,0.0,0.0,84,0.00,,,0.00,WUHU216HW,2013-06-25 07:27:00,
2013-06-25 03:28:00,72.4,67.2,29.80,North,0,0.0,0.0,84,0.00,,,0.00,WUHU216HW,2013-06-25 07:28:00,
2013-06-25 03:29:00,72.4,67.2,29.80,North,0,0.0,0.0,84,0.00,,,0.00,WUHU216HW,2013-06-25 07:29:00,
2013-06-25 03:30:00,72.4,67.2,29.80,North,0,0.0,0.0,84,0.00,,,0.00,WUHU216HW,2013-06-25 07:30:00,
2013-06-25 03:33:00,72.4,67.2,29.80,North,0,0.0,0.0,84,0.00,,,0.00,WUHU216HW,2013-06-25 07:33:00,
2013-06-25 03:34:00,72.4,67.2,29.80,North,0,0.0,0.0,84,0.00,,,0.00,WUHU216HW,2013-06-25 07:34:00,
2013-06-25 03:35:00,72.4,67.2,29.80,North,0,0.0,0.0,84,0.00,,,0.00,WUHU216HW,2013-06-25 07:35:00,
2013-06-25 03:38:00,72.5,67.4,29.80,North,0,0.0,0.0,84,0.00,,,0.00,WUHU216HW,2013-06-25 07:38:00,
2013-06-25 03:39:00,72.4,67.2,29.80,North,0,0.0,0.0,84,0.00,,,0.00,WUHU216HW,2013-06-25 07:39:00,
2013-06-25 03:40:00,72.5,67.4,29.80,North,0,0.0,0.0,84,0.00,,,0.00,WUHU216HW,2013-06-25 07:40:00,
2013-06-25 03:43:00,72.5,67.4,29.80,North,0,0.0,0.0,84,0.00,,,0.00,WUHU216HW,2013-06-25 07:43:00,
2013-06-25 03:44:00,72.5,67.4,29.80,North,0,0.0,0.0,84,0.00,,,0.00,WUHU216HW,2013-06-25 07:44:00,
2013-06-25 03:45:00,72.5,67.4,29.80,North,0,0.0,0.0,84,0.00,,,0.00,WUHU216HW,2013-06-25 07:45:00,
2013-06-25 03:48:00,72.5,67.4,29.80,North,0,0.0,0.0,84,0.00,,,0.00,WUHU216HW,2013-06-25 07:48:00,
2013-06-25 03:49:00,72.5,67.4,29.80,North,0,0.0,0.0,84,0.00,,,0.00,WUHU216HW,2013-06-25 07:49:00,
2013-06-25 03:50:00,72.4,67.2,29.80,North,0,0.0,0.0,84,0.00,,,0.00,WUHU216HW,2013-06-25 07:50:00,
2013-06-25 03:51:00,72.4,67.2,29.80,North,0,0.0,0.0,84,0.00,,,0.00,WUHU216HW,2013-06-25 07:51:00,
2013-06-25 03:54:00,72.4,67.2,29.80,North,0,0.0,0.0,84,0.00,,,0.00,WUHU216HW,2013-06-25 07:54:00,
2013-06-25 03:55:00,72.4,67.2,29.80,North,0,0.0,0.0,84,0.00,,,0.00,WUHU216HW,2013-06-25 07:55:00,
2013-06-25 03:56:00,72.4,67.2,29.80,North,0,0.0,0.0,84,0.00,,,0.00,WUHU216HW,2013-06-25 07:56:00,
2013-06-25 03:59:00,72.4,67.2,29.80,North,0,0.0,0.0,84,0.00,,,0.00,WUHU216HW,2013-06-25 07:59:00,
2013-06-25 04:00:00,72.2,67.1,29.80,North,0,0.0,0.0,84,0.00,,,0.00,WUHU216HW,2013-06-25 08:00:00,
2013-06-25 04:01:00,72.4,67.2,29.80,North,0,0.0,0.0,84,0.00,,,0.00,WUHU216HW,2013-06-25 08:01:00,
2013-06-25 04:02:00,72.2,67.1,29.80,North,0,0.0,0.0,84,0.00,,,0.00,WUHU216HW,2013-06-25 08:02:00,
2013-06-25 04:04:00,72.2,67.1,29.80,North,0,0.0,0.0,84,0.00,,,0.00,WUHU216HW,2013-06-25 08:04:00,
2013-06-25 04:05:00,72.2,67.1,29.80,North,0,0.0,0.0,84,0.00,,,0.00,WUHU216HW,2013-06-25 08:05:00,
2013-06-25 04:06:00,72.2,67.1,29.80,North,0,0.0,0.0,84,0.00,,,0.00,WUHU216HW,2013-06-25 08:06:00,
2013-06-25 04:07:00,72.2,67.1,29.80,North,0,0.0,0.0,84,0.00,,,0.00,WUHU216HW,2013-06-25 08:07:00,
2013-06-25 04:09:00,72.2,67.1,29.79,North,0,0.0,0.0,84,0.00,,,0.00,WUHU216HW,2013-06-25 08:09:00,
2013-06-25 04:10:00,72.2,67.1,29.79,North,0,0.0,0.0,84,0.00,,,0.00,WUHU216HW,2013-06-25 08:10:00,
2013-06-25 04:11:00,72.2,67.1,29.79,North,0,0.0,0.0,84,0.00,,,0.00,WUHU216HW,2013-06-25 08:11:00,
2013-06-25 04:12:00,72.2,67.1,29.79,North,0,0.0,0.0,84,0.00,,,0.00,WUHU216HW,2013-06-25 08:12:00,
2013-06-25 04:15:00,72.2,67.1,29.79,North,0,0.0,0.0,84,0.00,,,0.00,WUHU216HW,2013-06-25 08:15:00,
2013-06-25 04:16:00,72.2,67.1,29.79,North,0,0.0,0.0,84,0.00,,,0.00,WUHU216HW,2013-06-25 08:16:00,
2013-06-25 04:18:00,72.2,67.1,29.79,North,0,0.0,0.0,84,0.00,,,0.00,WUHU216HW,2013-06-25 08:18:00,
2013-06-25 04:20:00,72.2,67.1,29.79,North,0,0.0,0.0,84,0.00,,,0.00,WUHU216HW,2013-06-25 08:20:00,
2013-06-25 04:21:00,72.2,67.1,29.79,North,0,0.0,0.0,84,0.00,,,0.00,WUHU216HW,2013-06-25 08:21:00,
2013-06-25 04:24:00,72.2,67.1,29.79,North,0,0.0,0.0,84,0.00,,,0.00,WUHU216HW,2013-06-25 08:24:00,
2013-06-25 04:25:00,72.2,67.1,29.79,North,0,0.0,0.0,84,0.00,,,0.00,WUHU216HW,2013-06-25 08:25:00,
2013-06-25 04:26:00,72.2,67.1,29.79,North,0,0.0,0.0,84,0.00,,,0.00,WUHU216HW,2013-06-25 08:26:00,
2013-06-25 04:29:00,72.0,66.9,29.79,North,0,0.0,0.0,84,0.00,,,0.00,WUHU216HW,2013-06-25 08:29:00,
2013-06-25 04:30:00,72.0,66.9,29.79,North,0,0.0,0.0,84,0.00,,,0.00,WUHU216HW,2013-06-25 08:30:00,
2013-06-25 04:32:00,72.0,66.9,29.79,North,0,0.0,0.0,84,0.00,,,0.00,WUHU216HW,2013-06-25 08:32:00,
2013-06-25 04:34:00,72.0,66.9,29.79,North,0,0.0,0.0,84,0.00,,,0.00,WUHU216HW,2013-06-25 08:34:00,
2013-06-25 04:35:00,72.0,66.9,29.79,North,0,0.0,0.0,84,0.00,,,0.00,WUHU216HW,2013-06-25 08:35:00,
2013-06-25 04:36:00,72.0,66.9,29.79,North,0,0.0,0.0,84,0.00,,,0.00,WUHU216HW,2013-06-25 08:36:00,
2013-06-25 04:37:00,72.0,66.9,29.79,North,0,0.0,0.0,84,0.00,,,0.00,WUHU216HW,2013-06-25 08:37:00,
2013-06-25 04:39:00,72.0,66.9,29.79,North,0,0.0,0.0,84,0.00,,,0.00,WUHU216HW,2013-06-25 08:39:00,
2013-06-25 04:40:00,72.0,66.9,29.79,North,0,0.0,0.0,84,0.00,,,0.00,WUHU216HW,2013-06-25 08:40:00,
2013-06-25 04:41:00,72.0,66.9,29.79,North,0,0.0,0.0,84,0.00,,,0.00,WUHU216HW,2013-06-25 08:41:00,
2013-06-25 04:42:00,72.0,67.2,29.79,North,0,0.0,0.0,85,0.00,,,0.00,WUHU216HW,2013-06-25 08:42:00,
2013-06-25 04:44:00,72.0,67.2,29.79,North,0,0.0,0.0,85,0.00,,,0.00,WUHU216HW,2013-06-25 08:44:00,
2013-06-25 04:45:00,72.0,67.2,29.79,North,0,0.0,0.0,85,0.00,,,0.00,WUHU216HW,2013-06-25 08:45:00,
2013-06-25 04:46:00,72.0,67.2,29.79,North,0,0.0,0.0,85,0.00,,,0.00,WUHU216HW,2013-06-25 08:46:00,
2013-06-25 04:47:00,72.0,67.2,29.79,North,0,0.0,0.0,85,0.00,,,0.00,WUHU216HW,2013-06-25 08:47:00,
2013-06-25 04:49:00,72.0,67.2,29.79,North,0,0.0,0.0,85,0.00,,,0.00,WUHU216HW,2013-06-25 08:49:00,
2013-06-25 04:50:00,72.0,67.2,29.79,North,0,0.0,0.0,85,0.00,,,0.00,WUHU216HW,2013-06-25 08:50:00,
2013-06-25 04:51:00,72.0,67.2,29.79,North,0,0.0,0.0,85,0.00,,,0.00,WUHU216HW,2013-06-25 08:51:00,
2013-06-25 04:52:00,72.0,67.2,29.79,North,0,0.0,0.0,85,0.00,,,0.00,WUHU216HW,2013-06-25 08:52:00,
2013-06-25 04:53:00,72.0,67.2,29.79,North,0,0.0,0.0,85,0.00,,,0.00,WUHU216HW,2013-06-25 08:53:00,
2013-06-25 04:55:00,72.0,67.2,29.79,North,0,0.0,0.0,85,0.00,,,0.00,WUHU216HW,2013-06-25 08:55:00,
2013-06-25 04:56:00,72.0,67.2,29.79,North,0,0.0,0.0,85,0.00,,,0.00,WUHU216HW,2013-06-25 08:56:00,
2013-06-25 04:58:00,72.0,67.2,29.79,North,0,0.0,0.0,85,0.00,,,0.00,WUHU216HW,2013-06-25 08:58:00,
2013-06-25 05:00:00,71.8,67.1,29.79,North,0,0.0,0.0,85,0.00,,,0.00,WUHU216HW,2013-06-25 09:00:00,
2013-06-25 05:01:00,72.0,67.2,29.79,North,0,0.0,0.0,85,0.00,,,0.00,WUHU216HW,2013-06-25 09:01:00,
2013-06-25 05:03:00,71.8,67.1,29.79,North,0,0.0,0.0,85,0.00,,,0.00,WUHU216HW,2013-06-25 09:03:00,
2013-06-25 05:05:00,71.8,67.1,29.79,North,0,0.0,0.0,85,0.00,,,0.00,WUHU216HW,2013-06-25 09:05:00,
2013-06-25 05:06:00,71.8,67.1,29.79,North,0,0.0,0.0,85,0.00,,,0.00,WUHU216HW,2013-06-25 09:06:00,
2013-06-25 05:07:00,71.8,67.1,29.79,North,0,0.0,0.0,85,0.00,,,0.00,WUHU216HW,2013-06-25 09:07:00,
2013-06-25 05:08:00,71.8,67.1,29.79,North,0,0.0,0.0,85,0.00,,,0.00,WUHU216HW,2013-06-25 09:08:00,
2013-06-25 05:10:00,71.6,66.9,29.79,North,0,0.0,0.0,85,0.00,,,0.00,WUHU216HW,2013-06-25 09:10:00,
2013-06-25 05:11:00,71.6,66.9,29.79,North,0,0.0,0.0,85,0.00,,,0.00,WUHU216HW,2013-06-25 09:11:00,
2013-06-25 05:12:00,71.6,66.9,29.79,North,0,0.0,0.0,85,0.00,,,0.00,WUHU216HW,2013-06-25 09:12:00,
2013-06-25 05:13:00,71.6,67.2,29.79,North,0,0.0,0.0,86,0.00,,,0.00,WUHU216HW,2013-06-25 09:13:00,
2013-06-25 05:15:00,71.6,67.2,29.79,North,0,0.0,0.0,86,0.00,,,0.00,WUHU216HW,2013-06-25 09:15:00,
2013-06-25 05:16:00,71.6,67.2,29.79,North,0,0.0,0.0,86,0.00,,,0.00,WUHU216HW,2013-06-25 09:16:00,
2013-06-25 05:17:00,71.6,67.2,29.79,North,0,0.0,0.0,86,0.00,,,0.00,WUHU216HW,2013-06-25 09:17:00,
2013-06-25 05:18:00,71.6,67.2,29.79,North,0,0.0,0.0,86,0.00,,,0.00,WUHU216HW,2013-06-25 09:18:00,
2013-06-25 05:19:00,71.6,67.2,29.79,North,0,0.0,0.0,86,0.00,,,0.00,WUHU216HW,2013-06-25 09:19:00,
2013-06-25 05:21:00,71.5,66.7,29.79,North,0,0.0,0.0,85,0.00,,,0.00,WUHU216HW,2013-06-25 09:21:00,
2013-06-25 05:22:00,71.5,66.7,29.79,North,0,0.0,0.0,85,0.00,,,0.00,WUHU216HW,2013-06-25 09:22:00,
2013-06-25 05:24:00,71.5,66.7,29.79,North,0,0.0,0.0,85,0.00,,,0.00,WUHU216HW,2013-06-25 09:24:00,
2013-06-25 05:26:00,71.5,66.7,29.79,North,0,0.0,0.0,85,0.00,,,0.00,WUHU216HW,2013-06-25 09:26:00,
2013-06-25 05:27:00,71.5,66.7,29.79,North,0,0.0,0.0,85,0.00,,,0.00,WUHU216HW,2013-06-25 09:27:00,
2013-06-25 05:29:00,71.5,66.7,29.80,North,0,0.0,0.0,85,0.00,,,0.00,WUHU216HW,2013-06-25 09:29:00,
2013-06-25 05:31:00,71.5,66.7,29.80,North,0,0.0,0.0,85,0.00,,,0.00,WUHU216HW,2013-06-25 09:31:00,
2013-06-25 05:32:00,71.5,66.7,29.79,North,0,0.0,0.0,85,0.00,,,0.00,WUHU216HW,2013-06-25 09:32:00,
2013-06-25 05:34:00,71.3,66.5,29.80,North,0,0.0,0.0,85,0.00,,,0.00,WUHU216HW,2013-06-25 09:34:00,
2013-06-25 05:36:00,71.3,66.5,29.79,North,0,0.0,0.0,85,0.00,,,0.00,WUHU216HW,2013-06-25 09:36:00,
2013-06-25 05:37:00,71.5,67.1,29.79,North,0,0.0,0.0,86,0.00,,,0.00,WUHU216HW,2013-06-25 09:37:00,
2013-06-25 05:39:00,71.5,66.7,29.79,North,0,0.0,0.0,85,0.00,,,0.00,WUHU216HW,2013-06-25 09:39:00,
2013-06-25 05:40:00,71.5,66.7,29.79,North,0,0.0,0.0,85,0.00,,,0.00,WUHU216HW,2013-06-25 09:40:00,
2013-06-25 05:41:00,71.5,66.7,29.79,North,0,0.0,0.0,85,0.00,,,0.00,WUHU216HW,2013-06-25 09:41:00,
2013-06-25 05:42:00,71.5,66.7,29.80,North,0,0.0,0.0,85,0.00,,,0.00,WUHU216HW,2013-06-25 09:42:00,
2013-06-25 05:43:00,71.5,66.7,29.80,North,0,0.0,0.0,85,0.00,,,0.00,WUHU216HW,2013-06-25 09:43:00,
2013-06-25 05:45:00,71.5,67.1,29.79,North,0,0.0,0.0,86,0.00,,,0.00,WUHU216HW,2013-06-25 09:45:00,
2013-06-25 05:46:00,71.5,67.1,29.79,North,0,0.0,0.0,86,0.00,,,0.00,WUHU216HW,2013-06-25 09:46:00,
2013-06-25 05:48:00,71.5,67.1,29.79,North,0,0.0,0.0,86,0.00,,,0.00,WUHU216HW,2013-06-25 09:48:00,
2013-06-25 05:50:00,71.6,67.2,29.79,North,0,0.0,0.0,86,0.00,,,0.00,WUHU216HW,2013-06-25 09:50:00,
2013-06-25 05:51:00,71.6,67.2,29.79,North,0,0.0,0.0,86,0.00,,,0.00,WUHU216HW,2013-06-25 09:51:00,
2013-06-25 05:53:00,71.6,67.2,29.79,North,0,0.0,0.0,86,0.00,,,0.00,WUHU216HW,2013-06-25 09:53:00,
2013-06-25 05:55:00,71.8,67.4,29.80,North,0,0.0,0.0,86,0.00,,,0.00,WUHU216HW,2013-06-25 09:55:00,
2013-06-25 05:57:00,72.0,67.6,29.80,North,0,0.0,0.0,86,0.00,,,0.00,WUHU216HW,2013-06-25 09:57:00,
2013-06-25 05:58:00,72.0,67.6,29.80,North,0,0.0,0.0,86,0.00,,,0.00,WUHU216HW,2013-06-25 09:58:00,
2013-06-25 05:59:00,72.0,67.6,29.80,North,0,0.0,0.0,86,0.00,,,0.00,WUHU216HW,2013-06-25 09:59:00,
2013-06-25 06:00:00,72.0,67.6,29.80,North,0,0.0,0.0,86,0.00,,,0.00,WUHU216HW,2013-06-25 10:00:00,
2013-06-25 06:02:00,72.2,67.8,29.80,North,0,0.0,0.0,86,0.00,,,0.00,WUHU216HW,2013-06-25 10:02:00,
2013-06-25 06:03:00,72.2,67.8,29.80,North,0,0.0,0.0,86,0.00,,,0.00,WUHU216HW,2013-06-25 10:03:00,
2013-06-25 06:04:00,72.4,68.0,29.80,North,0,0.0,0.0,86,0.00,,,0.00,WUHU216HW,2013-06-25 10:04:00,
2013-06-25 06:05:00,72.4,68.0,29.80,North,0,0.0,0.0,86,0.00,,,0.00,WUHU216HW,2013-06-25 10:05:00,
2013-06-25 06:07:00,72.5,67.8,29.80,North,0,0.0,0.0,85,0.00,,,0.00,WUHU216HW,2013-06-25 10:07:00,
2013-06-25 06:08:00,72.5,67.8,29.80,North,0,0.0,0.0,85,0.00,,,0.00,WUHU216HW,2013-06-25 10:08:00,
2013-06-25 06:10:00,72.5,67.8,29.80,North,0,0.0,0.0,85,0.00,,,0.00,WUHU216HW,2013-06-25 10:10:00,
2013-06-25 06:11:00,72.7,68.0,29.80,North,0,0.0,0.0,85,0.00,,,0.00,WUHU216HW,2013-06-25 10:11:00,
2013-06-25 06:12:00,72.5,67.8,29.80,North,0,0.0,0.0,85,0.00,,,0.00,WUHU216HW,2013-06-25 10:12:00,
2013-06-25 06:14:00,72.7,68.0,29.80,North,0,0.0,0.0,85,0.00,,,0.00,WUHU216HW,2013-06-25 10:14:00,
2013-06-25 06:15:00,72.7,67.6,29.80,North,0,0.0,0.0,84,0.00,,,0.00,WUHU216HW,2013-06-25 10:15:00,
2013-06-25 06:16:00,72.7,67.6,29.80,North,0,0.0,0.0,84,0.00,,,0.00,WUHU216HW,2013-06-25 10:16:00,
2013-06-25 06:17:00,72.7,67.6,29.80,North,0,0.0,0.0,84,0.00,,,0.00,WUHU216HW,2013-06-25 10:17:00,
2013-06-25 06:19:00,72.7,67.6,29.80,North,0,0.0,0.0,84,0.00,,,0.00,WUHU216HW,2013-06-25 10:19:00,
2013-06-25 06:20:00,72.7,67.6,29.80,North,0,0.0,0.0,84,0.00,,,0.00,WUHU216HW,2013-06-25 10:20:00,
2013-06-25 06:21:00,72.7,67.6,29.80,North,0,0.0,0.0,84,0.00,,,0.00,WUHU216HW,2013-06-25 10:21:00,
2013-06-25 06:22:00,72.7,67.6,29.80,North,0,0.0,0.0,84,0.00,,,0.00,WUHU216HW,2013-06-25 10:22:00,
2013-06-25 06:24:00,72.7,67.6,29.80,North,0,0.0,0.0,84,0.00,,,0.00,WUHU216HW,2013-06-25 10:24:00,
2013-06-25 06:25:00,72.7,67.6,29.80,North,0,0.0,0.0,84,0.00,,,0.00,WUHU216HW,2013-06-25 10:25:00,
2013-06-25 06:26:00,72.7,67.6,29.80,North,0,0.0,0.0,84,0.00,,,0.00,WUHU216HW,2013-06-25 10:26:00,
2013-06-25 06:28:00,72.7,67.6,29.80,North,0,0.0,0.0,84,0.00,,,0.00,WUHU216HW,2013-06-25 10:28:00,
2013-06-25 06:29:00,72.7,67.6,29.80,North,0,0.0,0.0,84,0.00,,,0.00,WUHU216HW,2013-06-25 10:29:00,
2013-06-25 06:30:00,72.7,67.6,29.80,North,0,0.0,0.0,84,0.00,,,0.00,WUHU216HW,2013-06-25 10:30:00,
2013-06-25 06:31:00,72.7,67.6,29.80,North,0,0.0,0.0,84,0.00,,,0.00,WUHU216HW,2013-06-25 10:31:00,
2013-06-25 06:33:00,73.1,68.3,29.80,North,0,0.0,0.0,85,0.00,,,0.00,WUHU216HW,2013-06-25 10:33:00,
2013-06-25 06:34:00,73.1,68.3,29.80,North,0,0.0,0.0,85,0.00,,,0.00,WUHU216HW,2013-06-25 10:34:00,
2013-06-25 06:35:00,73.1,68.3,29.80,North,0,0.0,0.0,85,0.00,,,0.00,WUHU216HW,2013-06-25 10:35:00,
2013-06-25 06:36:00,73.3,68.5,29.80,North,0,0.0,0.0,85,0.00,,,0.00,WUHU216HW,2013-06-25 10:36:00,
2013-06-25 06:38:00,73.3,68.5,29.80,North,0,0.0,0.0,85,0.00,,,0.00,WUHU216HW,2013-06-25 10:38:00,
2013-06-25 06:39:00,73.8,68.7,29.80,North,0,0.0,0.0,84,0.00,,,0.00,WUHU216HW,2013-06-25 10:39:00,
2013-06-25 06:40:00,74.0,68.5,29.80,North,0,0.0,0.0,83,0.00,,,0.00,WUHU216HW,2013-06-25 10:40:00,
2013-06-25 06:41:00,74.3,68.9,29.80,North,0,0.0,0.0,83,0.00,,,0.00,WUHU216HW,2013-06-25 10:41:00,
2013-06-25 06:42:00,74.3,68.9,29.80,North,0,0.0,0.0,83,0.00,,,0.00,WUHU216HW,2013-06-25 10:42:00,
2013-06-25 06:43:00,74.7,69.2,29.80,North,0,0.0,0.0,83,0.00,,,0.00,WUHU216HW,2013-06-25 10:43:00,
2013-06-25 06:44:00,74.9,69.1,29.80,North,0,0.0,0.0,82,0.00,,,0.00,WUHU216HW,2013-06-25 10:44:00,
2013-06-25 06:46:00,75.2,69.1,29.80,North,0,0.0,0.0,81,0.00,,,0.00,WUHU216HW,2013-06-25 10:46:00,
2013-06-25 06:47:00,75.4,69.3,29.80,North,0,0.0,0.0,81,0.00,,,0.00,WUHU216HW,2013-06-25 10:47:00,
2013-06-25 06:48:00,76.0,69.8,29.80,North,0,0.0,0.0,81,0.00,,,0.00,WUHU216HW,2013-06-25 10:48:00,
2013-06-25 06:50:00,76.3,70.1,29.79,North,0,0.0,0.0,81,0.00,,,0.00,WUHU216HW,2013-06-25 10:50:00,
2013-06-25 06:51:00,76.7,70.4,29.80,North,0,0.0,0.0,81,0.00,,,0.00,WUHU216HW,2013-06-25 10:51:00,
2013-06-25 06:52:00,76.7,69.7,29.79,North,0,0.0,0.0,79,0.00,,,0.00,WUHU216HW,2013-06-25 10:52:00,
2013-06-25 06:53:00,77.2,70.6,29.80,North,0,0.0,0.0,80,0.00,,,0.00,WUHU216HW,2013-06-25 10:53:00,
2013-06-25 06:55:00,77.4,70.7,29.80,North,0,0.0,0.0,80,0.00,,,0.00,WUHU216HW,2013-06-25 10:55:00,
2013-06-25 06:56:00,77.9,70.5,29.79,North,0,0.0,0.0,78,0.00,,,0.00,WUHU216HW,2013-06-25 10:56:00,
2013-06-25 06:57:00,77.9,70.5,29.79,North,0,0.0,0.0,78,0.00,,,0.00,WUHU216HW,2013-06-25 10:57:00,
2013-06-25 06:58:00,78.3,70.5,29.79,North,0,0.0,0.0,77,0.00,,,0.00,WUHU216HW,2013-06-25 10:58:00,
2013-06-25 07:00:00,78.5,70.3,29.79,North,0,0.0,0.0,76,0.00,,,0.00,WUHU216HW,2013-06-25 11:00:00,
2013-06-25 07:01:00,78.8,70.2,29.80,North,0,0.0,0.0,75,0.00,,,0.00,WUHU216HW,2013-06-25 11:01:00,
2013-06-25 07:02:00,78.8,70.2,29.80,North,0,0.0,0.0,75,0.00,,,0.00,WUHU216HW,2013-06-25 11:02:00,
2013-06-25 07:03:00,79.0,70.4,29.80,North,0,0.0,0.0,75,0.00,,,0.00,WUHU216HW,2013-06-25 11:03:00,
2013-06-25 07:05:00,79.2,70.6,29.80,North,0,0.0,0.0,75,0.00,,,0.00,WUHU216HW,2013-06-25 11:05:00,
2013-06-25 07:06:00,79.4,69.9,29.80,North,0,0.0,0.0,73,0.00,,,0.00,WUHU216HW,2013-06-25 11:06:00,
2013-06-25 07:07:00,79.6,69.8,29.80,North,0,0.0,0.0,72,0.00,,,0.00,WUHU216HW,2013-06-25 11:07:00,
2013-06-25 07:09:00,79.7,70.3,29.80,North,0,0.0,0.0,73,0.00,,,0.00,WUHU216HW,2013-06-25 11:09:00,
2013-06-25 07:10:00,79.7,70.3,29.80,North,0,0.0,0.0,73,0.00,,,0.00,WUHU216HW,2013-06-25 11:10:00,
2013-06-25 07:11:00,79.9,70.5,29.80,North,0,0.0,0.0,73,0.00,,,0.00,WUHU216HW,2013-06-25 11:11:00,
2013-06-25 07:12:00,80.1,70.7,29.80,North,0,0.0,0.0,73,0.00,,,0.00,WUHU216HW,2013-06-25 11:12:00,
2013-06-25 07:13:00,80.1,70.7,29.80,North,0,0.0,0.0,73,0.00,,,0.00,WUHU216HW,2013-06-25 11:13:00,
2013-06-25 07:14:00,80.3,70.5,29.80,North,0,0.0,0.0,72,0.00,,,0.00,WUHU216HW,2013-06-25 11:14:00,
2013-06-25 07:15:00,80.6,71.2,29.80,North,0,0.0,0.0,73,0.00,,,0.00,WUHU216HW,2013-06-25 11:15:00,
2013-06-25 07:16:00,80.8,71.0,29.80,North,0,0.0,0.0,72,0.00,,,0.00,WUHU216HW,2013-06-25 11:16:00,
2013-06-25 07:18:00,81.2,71.3,29.79,North,0,0.0,0.0,72,0.00,,,0.00,WUHU216HW,2013-06-25 11:18:00,
2013-06-25 07:19:00,81.4,70.7,29.79,North,0,0.0,0.0,70,0.00,,,0.00,WUHU216HW,2013-06-25 11:19:00,
2013-06-25 07:21:00,81.5,71.3,29.80,North,0,0.0,0.0,71,0.00,,,0.00,WUHU216HW,2013-06-25 11:21:00,
2013-06-25 07:23:00,81.5,71.3,29.80,North,0,0.0,0.0,71,0.00,,,0.00,WUHU216HW,2013-06-25 11:23:00,
2013-06-25 07:24:00,81.5,71.3,29.79,North,0,0.0,0.0,71,0.00,,,0.00,WUHU216HW,2013-06-25 11:24:00,
2013-06-25 07:26:00,81.9,71.2,29.79,North,0,0.0,0.0,70,0.00,,,0.00,WUHU216HW,2013-06-25 11:26:00,
2013-06-25 07:28:00,81.9,71.2,29.79,North,0,0.0,0.0,70,0.00,,,0.00,WUHU216HW,2013-06-25 11:28:00,
2013-06-25 07:29:00,82.1,70.4,29.79,North,0,0.0,0.0,68,0.00,,,0.00,WUHU216HW,2013-06-25 11:29:00,
2013-06-25 07:31:00,82.1,70.4,29.80,North,0,0.0,0.0,68,0.00,,,0.00,WUHU216HW,2013-06-25 11:31:00,
2013-06-25 07:33:00,82.3,70.6,29.79,North,0,0.0,0.0,68,0.00,,,0.00,WUHU216HW,2013-06-25 11:33:00,
2013-06-25 07:34:00,82.3,70.6,29.79,North,0,0.0,0.0,68,0.00,,,0.00,WUHU216HW,2013-06-25 11:34:00,
2013-06-25 07:36:00,82.4,71.2,29.79,North,0,0.0,0.0,69,0.00,,,0.00,WUHU216HW,2013-06-25 11:36:00,
2013-06-25 07:38:00,82.8,71.1,29.79,North,0,0.0,0.0,68,0.00,,,0.00,WUHU216HW,2013-06-25 11:38:00,
2013-06-25 07:39:00,82.8,71.1,29.79,North,0,0.0,0.0,68,0.00,,,0.00,WUHU216HW,2013-06-25 11:39:00,
2013-06-25 07:41:00,83.0,70.8,29.79,North,0,0.0,0.0,67,0.00,,,0.00,WUHU216HW,2013-06-25 11:41:00,
2013-06-25 07:42:00,83.0,70.8,29.79,North,0,0.0,0.0,67,0.00,,,0.00,WUHU216HW,2013-06-25 11:42:00,
2013-06-25 07:44:00,83.0,70.8,29.79,North,0,0.0,0.0,67,0.00,,,0.00,WUHU216HW,2013-06-25 11:44:00,
2013-06-25 07:47:00,83.5,71.4,29.80,North,0,0.0,0.0,67,0.00,,,0.00,WUHU216HW,2013-06-25 11:47:00,
2013-06-25 07:49:00,83.7,71.6,29.79,North,0,0.0,0.0,67,0.00,,,0.00,WUHU216HW,2013-06-25 11:49:00,
2013-06-25 07:50:00,83.9,71.7,29.79,North,0,0.0,0.0,67,0.00,,,0.00,WUHU216HW,2013-06-25 11:50:00,
2013-06-25 07:52:00,83.9,71.7,29.79,North,0,0.0,0.0,67,0.00,,,0.00,WUHU216HW,2013-06-25 11:52:00,
2013-06-25 07:54:00,84.4,72.3,29.79,North,0,0.0,0.0,67,0.00,,,0.00,WUHU216HW,2013-06-25 11:54:00,
2013-06-25 07:55:00,84.6,71.6,29.79,North,0,0.0,0.0,65,0.00,,,0.00,WUHU216HW,2013-06-25 11:55:00,
2013-06-25 07:57:00,84.6,72.0,29.80,North,0,0.0,0.0,66,0.00,,,0.00,WUHU216HW,2013-06-25 11:57:00,
2013-06-25 07:59:00,85.0,71.9,29.79,North,0,0.0,0.0,65,0.00,,,0.00,WUHU216HW,2013-06-25 11:59:00,
2013-06-25 08:00:00,85.0,71.9,29.79,North,0,0.0,0.0,65,0.00,,,0.00,WUHU216HW,2013-06-25 12:00:00,
2013-06-25 08:02:00,85.0,71.5,29.79,North,0,0.0,0.0,64,0.00,,,0.00,WUHU216HW,2013-06-25 12:02:00,
2013-06-25 08:03:00,85.0,71.5,29.79,North,0,0.0,0.0,64,0.00,,,0.00,WUHU216HW,2013-06-25 12:03:00,
2013-06-25 08:04:00,85.0,71.5,29.79,North,0,0.0,0.0,64,0.00,,,0.00,WUHU216HW,2013-06-25 12:04:00,
2013-06-25 08:05:00,85.0,71.5,29.79,North,0,0.0,0.0,64,0.00,,,0.00,WUHU216HW,2013-06-25 12:05:00,
2013-06-25 08:07:00,85.0,71.9,29.79,North,0,0.0,0.0,65,0.00,,,0.00,WUHU216HW,2013-06-25 12:07:00,
2013-06-25 08:08:00,85.0,71.5,29.80,North,0,0.0,0.0,64,0.00,,,0.00,WUHU216HW,2013-06-25 12:08:00,
2013-06-25 08:09:00,84.8,71.3,29.80,North,0,0.0,0.0,64,0.00,,,0.00,WUHU216HW,2013-06-25 12:09:00,
2013-06-25 08:10:00,85.0,71.5,29.80,North,0,0.0,0.0,64,0.00,,,0.00,WUHU216HW,2013-06-25 12:10:00,
2013-06-25 08:12:00,84.8,71.3,29.79,North,0,0.0,0.0,64,0.00,,,0.00,WUHU216HW,2013-06-25 12:12:00,
2013-06-25 08:13:00,85.0,71.5,29.79,North,0,0.0,0.0,64,0.00,,,0.00,WUHU216HW,2013-06-25 12:13:00,
2013-06-25 08:14:00,85.1,72.0,29.79,North,0,0.0,0.0,65,0.00,,,0.00,WUHU216HW,2013-06-25 12:14:00,
2013-06-25 08:15:00,85.1,72.0,29.79,North,0,0.0,0.0,65,0.00,,,0.00,WUHU216HW,2013-06-25 12:15:00,
2013-06-25 08:16:00,85.1,72.0,29.79,North,0,0.0,0.0,65,0.00,,,0.00,WUHU216HW,2013-06-25 12:16:00,
2013-06-25 08:17:00,85.5,71.9,29.79,North,0,0.0,0.0,64,0.00,,,0.00,WUHU216HW,2013-06-25 12:17:00,
2013-06-25 08:18:00,85.7,71.7,29.79,North,0,0.0,0.0,63,0.00,,,0.00,WUHU216HW,2013-06-25 12:18:00,
2013-06-25 08:19:00,85.7,71.7,29.79,North,0,0.0,0.0,63,0.00,,,0.00,WUHU216HW,2013-06-25 12:19:00,
2013-06-25 08:20:00,85.7,71.7,29.79,North,0,0.0,0.0,63,0.00,,,0.00,WUHU216HW,2013-06-25 12:20:00,
2013-06-25 08:21:00,85.7,71.7,29.79,North,0,0.0,0.0,63,0.00,,,0.00,WUHU216HW,2013-06-25 12:21:00,
2013-06-25 08:23:00,85.7,71.7,29.79,North,0,0.0,0.0,63,0.00,,,0.00,WUHU216HW,2013-06-25 12:23:00,
2013-06-25 08:25:00,86.4,72.8,29.79,North,0,0.0,0.0,64,0.00,,,0.00,WUHU216HW,2013-06-25 12:25:00,
2013-06-25 08:26:00,86.4,72.8,29.79,North,0,0.0,0.0,64,0.00,,,0.00,WUHU216HW,2013-06-25 12:26:00,
2013-06-25 08:28:00,87.1,72.1,29.79,North,0,0.0,0.0,61,0.00,,,0.00,WUHU216HW,2013-06-25 12:28:00,
2013-06-25 08:29:00,86.9,72.4,29.80,North,0,0.0,0.0,62,0.00,,,0.00,WUHU216HW,2013-06-25 12:29:00,
2013-06-25 08:30:00,86.9,71.9,29.80,North,0,0.0,0.0,61,0.00,,,0.00,WUHU216HW,2013-06-25 12:30:00,
2013-06-25 08:31:00,86.9,71.9,29.79,North,0,0.0,0.0,61,0.00,,,0.00,WUHU216HW,2013-06-25 12:31:00,
2013-06-25 08:34:00,86.9,71.9,29.79,North,0,0.0,0.0,61,0.00,,,0.00,WUHU216HW,2013-06-25 12:34:00,
2013-06-25 08:35:00,86.8,72.2,29.79,North,0,0.0,0.0,62,0.00,,,0.00,WUHU216HW,2013-06-25 12:35:00,
2013-06-25 08:36:00,86.9,72.8,29.79,North,0,0.0,0.0,63,0.00,,,0.00,WUHU216HW,2013-06-25 12:36:00,
2013-06-25 08:39:00,87.3,73.2,29.79,North,0,0.0,0.0,63,0.00,,,0.00,WUHU216HW,2013-06-25 12:39:00,
2013-06-25 08:40:00,87.3,73.2,29.79,North,0,0.0,0.0,63,0.00,,,0.00,WUHU216HW,2013-06-25 12:40:00,
2013-06-25 08:41:00,87.3,73.2,29.80,North,0,0.0,0.0,63,0.00,,,0.00,WUHU216HW,2013-06-25 12:41:00,
2013-06-25 08:44:00,88.6,73.0,29.79,North,0,0.0,0.0,60,0.00,,,0.00,WUHU216HW,2013-06-25 12:44:00,
2013-06-25 08:45:00,88.6,73.0,29.79,North,0,0.0,0.0,60,0.00,,,0.00,WUHU216HW,2013-06-25 12:45:00,
2013-06-25 08:46:00,88.6,73.0,29.80,North,0,0.0,0.0,60,0.00,,,0.00,WUHU216HW,2013-06-25 12:46:00,
2013-06-25 08:49:00,88.9,73.4,29.80,North,0,0.0,0.0,60,0.00,,,0.00,WUHU216HW,2013-06-25 12:49:00,
2013-06-25 08:50:00,89.1,73.5,29.80,North,0,0.0,0.0,60,0.00,,,0.00,WUHU216HW,2013-06-25 12:50:00,
2013-06-25 08:51:00,88.9,72.8,29.80,North,0,0.0,0.0,59,0.00,,,0.00,WUHU216HW,2013-06-25 12:51:00,
2013-06-25 08:55:00,88.4,72.3,29.80,North,0,0.0,0.0,59,0.00,,,0.00,WUHU216HW,2013-06-25 12:55:00,
2013-06-25 08:56:00,88.2,72.7,29.79,North,0,0.0,0.0,60,0.00,,,0.00,WUHU216HW,2013-06-25 12:56:00,
2013-06-25 08:57:00,88.2,72.2,29.79,North,0,0.0,0.0,59,0.00,,,0.00,WUHU216HW,2013-06-25 12:57:00,
2013-06-25 09:00:00,88.0,72.6,29.79,North,0,0.0,0.0,60,0.00,,,0.00,WUHU216HW,2013-06-25 13:00:00,
2013-06-25 09:01:00,88.2,72.7,29.79,North,0,0.0,0.0,60,0.00,,,0.00,WUHU216HW,2013-06-25 13:01:00,
2013-06-25 09:02:00,88.2,72.7,29.79,North,0,0.0,0.0,60,0.00,,,0.00,WUHU216HW,2013-06-25 13:02:00,
2013-06-25 09:05:00,88.2,72.7,29.79,North,0,0.0,0.0,60,0.00,,,0.00,WUHU216HW,2013-06-25 13:05:00,
2013-06-25 09:07:00,88.2,72.2,29.79,North,0,0.0,0.0,59,0.00,,,0.00,WUHU216HW,2013-06-25 13:07:00,
2013-06-25 09:10:00,88.0,72.6,29.79,North,0,0.0,0.0,60,0.00,,,0.00,WUHU216HW,2013-06-25 13:10:00,
2013-06-25 09:12:00,87.8,71.8,29.78,North,0,0.0,0.0,59,0.00,,,0.00,WUHU216HW,2013-06-25 13:12:00,
2013-06-25 09:13:00,87.8,71.8,29.78,North,0,0.0,0.0,59,0.00,,,0.00,WUHU216HW,2013-06-25 13:13:00,
2013-06-25 09:15:00,87.8,71.8,29.79,North,0,0.0,0.0,59,0.00,,,0.00,WUHU216HW,2013-06-25 13:15:00,
2013-06-25 09:16:00,87.8,71.8,29.79,North,0,0.0,0.0,59,0.00,,,0.00,WUHU216HW,2013-06-25 13:16:00,
2013-06-25 09:17:00,87.8,71.8,29.79,North,0,0.0,0.0,59,0.00,,,0.00,WUHU216HW,2013-06-25 13:17:00,
2013-06-25 09:18:00,87.5,72.5,29.79,North,0,0.0,0.0,61,0.00,,,0.00,WUHU216HW,2013-06-25 13:18:00,
2013-06-25 09:20:00,87.5,72.0,29.79,North,0,0.0,0.0,60,0.00,,,0.00,WUHU216HW,2013-06-25 13:20:00,
2013-06-25 09:21:00,87.5,72.0,29.79,North,0,0.0,0.0,60,0.00,,,0.00,WUHU216HW,2013-06-25 13:21:00,
2013-06-25 09:22:00,87.5,72.0,29.79,North,0,0.0,0.0,60,0.00,,,0.00,WUHU216HW,2013-06-25 13:22:00,
2013-06-25 09:23:00,87.5,72.0,29.79,North,0,0.0,0.0,60,0.00,,,0.00,WUHU216HW,2013-06-25 13:23:00,
2013-06-25 09:25:00,87.5,72.0,29.79,North,0,0.0,0.0,60,0.00,,,0.00,WUHU216HW,2013-06-25 13:25:00,
2013-06-25 09:26:00,87.5,72.5,29.79,North,0,0.0,0.0,61,0.00,,,0.00,WUHU216HW,2013-06-25 13:26:00,
2013-06-25 09:27:00,87.5,72.5,29.79,North,0,0.0,0.0,61,0.00,,,0.00,WUHU216HW,2013-06-25 13:27:00,
2013-06-25 09:28:00,87.5,72.5,29.79,North,0,0.0,0.0,61,0.00,,,0.00,WUHU216HW,2013-06-25 13:28:00,
2013-06-25 09:30:00,87.5,72.5,29.79,North,0,0.0,0.0,61,0.00,,,0.00,WUHU216HW,2013-06-25 13:30:00,
2013-06-25 09:31:00,87.5,72.5,29.79,North,0,0.0,0.0,61,0.00,,,0.00,WUHU216HW,2013-06-25 13:31:00,
2013-06-25 09:32:00,87.5,72.5,29.79,North,0,0.0,0.0,61,0.00,,,0.00,WUHU216HW,2013-06-25 13:32:00,
2013-06-25 09:33:00,87.5,72.5,29.78,North,0,0.0,0.0,61,0.00,,,0.00,WUHU216HW,2013-06-25 13:33:00,
2013-06-25 09:35:00,87.5,72.5,29.78,North,0,0.0,0.0,61,0.00,,,0.00,WUHU216HW,2013-06-25 13:35:00,
2013-06-25 09:37:00,87.5,72.5,29.78,North,0,0.0,0.0,61,0.00,,,0.00,WUHU216HW,2013-06-25 13:37:00,
2013-06-25 09:39:00,87.5,72.5,29.78,North,0,0.0,0.0,61,0.00,,,0.00,WUHU216HW,2013-06-25 13:39:00,
2013-06-25 09:41:00,87.7,72.6,29.78,North,0,0.0,0.0,61,0.00,,,0.00,WUHU216HW,2013-06-25 13:41:00,
2013-06-25 09:42:00,87.8,72.8,29.78,North,0,0.0,0.0,61,0.00,,,0.00,WUHU216HW,2013-06-25 13:42:00,
2013-06-25 09:44:00,87.8,72.8,29.78,North,0,0.0,0.0,61,0.00,,,0.00,WUHU216HW,2013-06-25 13:44:00,
2013-06-25 09:46:00,88.0,73.0,29.78,North,0,0.0,0.0,61,0.00,,,0.00,WUHU216HW,2013-06-25 13:46:00,
2013-06-25 09:47:00,88.0,73.0,29.78,North,0,0.0,0.0,61,0.00,,,0.00,WUHU216HW,2013-06-25 13:47:00,
2013-06-25 09:48:00,88.0,73.0,29.78,North,0,0.0,0.0,61,0.00,,,0.00,WUHU216HW,2013-06-25 13:48:00,
2013-06-25 09:49:00,88.6,73.0,29.78,North,0,0.0,0.0,60,0.00,,,0.00,WUHU216HW,2013-06-25 13:49:00,
2013-06-25 09:51:00,88.7,73.2,29.78,North,0,0.0,0.0,60,0.00,,,0.00,WUHU216HW,2013-06-25 13:51:00,
2013-06-25 09:53:00,88.7,72.6,29.78,North,0,0.0,0.0,59,0.00,,,0.00,WUHU216HW,2013-06-25 13:53:00,
2013-06-25 09:54:00,88.7,73.2,29.78,North,0,0.0,0.0,60,0.00,,,0.00,WUHU216HW,2013-06-25 13:54:00,
2013-06-25 09:56:00,88.6,72.5,29.78,North,0,0.0,0.0,59,0.00,,,0.00,WUHU216HW,2013-06-25 13:56:00,
2013-06-25 09:58:00,88.6,72.5,29.78,North,0,0.0,0.0,59,0.00,,,0.00,WUHU216HW,2013-06-25 13:58:00,
2013-06-25 09:59:00,88.7,73.2,29.78,North,0,0.0,0.0,60,0.00,,,0.00,WUHU216HW,2013-06-25 13:59:00,
2013-06-25 10:01:00,88.9,72.8,29.78,North,0,0.0,0.0,59,0.00,,,0.00,WUHU216HW,2013-06-25 14:01:00,
2013-06-25 10:03:00,89.1,73.5,29.78,North,0,0.0,0.0,60,0.00,,,0.00,WUHU216HW,2013-06-25 14:03:00,
2013-06-25 10:04:00,89.1,73.5,29.78,North,0,0.0,0.0,60,0.00,,,0.00,WUHU216HW,2013-06-25 14:04:00,
2013-06-25 10:05:00,89.1,73.5,29.78,North,0,0.0,0.0,60,0.00,,,0.00,WUHU216HW,2013-06-25 14:05:00,
2013-06-25 10:07:00,89.3,73.1,29.78,North,0,0.0,0.0,59,0.00,,,0.00,WUHU216HW,2013-06-25 14:07:00,
2013-06-25 10:08:00,89.3,73.1,29.78,North,0,0.0,0.0,59,0.00,,,0.00,WUHU216HW,2013-06-25 14:08:00,
2013-06-25 10:09:00,89.3,73.1,29.78,North,0,0.0,0.0,59,0.00,,,0.00,WUHU216HW,2013-06-25 14:09:00,
2013-06-25 10:10:00,89.3,73.1,29.78,North,0,0.0,0.0,59,0.00,,,0.00,WUHU216HW,2013-06-25 14:10:00,
2013-06-25 10:12:00,89.8,73.6,29.78,North,0,0.0,0.0,59,0.00,,,0.00,WUHU216HW,2013-06-25 14:12:00,
2013-06-25 10:13:00,89.8,73.6,29.78,North,0,0.0,0.0,59,0.00,,,0.00,WUHU216HW,2013-06-25 14:13:00,
2013-06-25 10:14:00,89.8,73.6,29.78,North,0,0.0,0.0,59,0.00,,,0.00,WUHU216HW,2013-06-25 14:14:00,
2013-06-25 10:15:00,89.8,73.6,29.78,North,0,0.0,0.0,59,0.00,,,0.00,WUHU216HW,2013-06-25 14:15:00,
2013-06-25 10:17:00,90.2,73.4,29.78,North,0,0.0,0.0,58,0.00,,,0.00,WUHU216HW,2013-06-25 14:17:00,
2013-06-25 10:18:00,90.2,73.4,29.78,North,0,0.0,0.0,58,0.00,,,0.00,WUHU216HW,2013-06-25 14:18:00,
2013-06-25 10:19:00,90.2,73.4,29.78,North,0,0.0,0.0,58,0.00,,,0.00,WUHU216HW,2013-06-25 14:19:00,
2013-06-25 10:20:00,90.2,73.4,29.78,North,0,0.0,0.0,58,0.00,,,0.00,WUHU216HW,2013-06-25 14:20:00,
2013-06-25 10:22:00,90.4,73.5,29.79,North,0,0.0,0.0,58,0.00,,,0.00,WUHU216HW,2013-06-25 14:22:00,
2013-06-25 10:23:00,90.4,73.5,29.79,North,0,0.0,0.0,58,0.00,,,0.00,WUHU216HW,2013-06-25 14:23:00,
2013-06-25 10:24:00,90.4,73.5,29.79,North,0,0.0,0.0,58,0.00,,,0.00,WUHU216HW,2013-06-25 14:24:00,
2013-06-25 10:25:00,90.4,73.5,29.79,North,0,0.0,0.0,58,0.00,,,0.00,WUHU216HW,2013-06-25 14:25:00,
2013-06-25 10:27:00,91.1,74.2,29.79,North,0,0.0,0.0,58,0.00,,,0.00,WUHU216HW,2013-06-25 14:27:00,
2013-06-25 10:29:00,91.1,74.2,29.78,North,0,0.0,0.0,58,0.00,,,0.00,WUHU216HW,2013-06-25 14:29:00,
2013-06-25 10:30:00,91.1,74.2,29.78,North,0,0.0,0.0,58,0.00,,,0.00,WUHU216HW,2013-06-25 14:30:00,
2013-06-25 10:32:00,91.4,73.4,29.78,North,0,0.0,0.0,56,0.00,,,0.00,WUHU216HW,2013-06-25 14:32:00,
2013-06-25 10:33:00,91.4,73.4,29.79,North,0,0.0,0.0,56,0.00,,,0.00,WUHU216HW,2013-06-25 14:33:00,
2013-06-25 10:34:00,91.4,73.4,29.79,North,0,0.0,0.0,56,0.00,,,0.00,WUHU216HW,2013-06-25 14:34:00,
2013-06-25 10:35:00,91.4,74.0,29.79,North,0,0.0,0.0,57,0.00,,,0.00,WUHU216HW,2013-06-25 14:35:00,
2013-06-25 10:36:00,91.4,74.0,29.79,North,0,0.0,0.0,57,0.00,,,0.00,WUHU216HW,2013-06-25 14:36:00,
2013-06-25 10:37:00,91.4,73.4,29.79,North,0,0.0,0.0,56,0.00,,,0.00,WUHU216HW,2013-06-25 14:37:00,
2013-06-25 10:38:00,91.4,73.4,29.79,North,0,0.0,0.0,56,0.00,,,0.00,WUHU216HW,2013-06-25 14:38:00,
2013-06-25 10:40:00,91.4,73.4,29.79,North,0,0.0,0.0,56,0.00,,,0.00,WUHU216HW,2013-06-25 14:40:00,
2013-06-25 10:42:00,91.6,73.6,29.79,North,0,0.0,0.0,56,0.00,,,0.00,WUHU216HW,2013-06-25 14:42:00,
2013-06-25 10:43:00,91.6,73.6,29.79,North,0,0.0,0.0,56,0.00,,,0.00,WUHU216HW,2013-06-25 14:43:00,
2013-06-25 10:45:00,91.6,73.6,29.79,North,0,0.0,0.0,56,0.00,,,0.00,WUHU216HW,2013-06-25 14:45:00,
2013-06-25 10:47:00,91.6,73.1,29.79,North,0,0.0,0.0,55,0.00,,,0.00,WUHU216HW,2013-06-25 14:47:00,
2013-06-25 10:48:00,91.6,73.1,29.79,North,0,0.0,0.0,55,0.00,,,0.00,WUHU216HW,2013-06-25 14:48:00,
2013-06-25 10:50:00,91.6,73.1,29.79,North,0,0.0,0.0,55,0.00,,,0.00,WUHU216HW,2013-06-25 14:50:00,
2013-06-25 10:51:00,91.6,73.1,29.79,North,0,0.0,0.0,55,0.00,,,0.00,WUHU216HW,2013-06-25 14:51:00,
2013-06-25 10:52:00,91.6,73.6,29.79,North,0,0.0,0.0,56,0.00,,,0.00,WUHU216HW,2013-06-25 14:52:00,
2013-06-25 10:53:00,91.6,73.6,29.79,North,0,0.0,0.0,56,0.00,,,0.00,WUHU216HW,2013-06-25 14:53:00,
2013-06-25 10:55:00,91.6,73.6,29.79,North,0,0.0,0.0,56,0.00,,,0.00,WUHU216HW,2013-06-25 14:55:00,
2013-06-25 10:56:00,91.6,73.6,29.79,North,0,0.0,0.0,56,0.00,,,0.00,WUHU216HW,2013-06-25 14:56:00,
2013-06-25 10:58:00,91.6,73.6,29.79,North,0,0.0,0.0,56,0.00,,,0.00,WUHU216HW,2013-06-25 14:58:00,
2013-06-25 10:59:00,91.6,73.6,29.79,North,0,0.0,0.0,56,0.00,,,0.00,WUHU216HW,2013-06-25 14:59:00,
2013-06-25 11:00:00,92.0,74.5,29.79,North,0,0.0,0.0,57,0.00,,,0.00,WUHU216HW,2013-06-25 15:00:00,
2013-06-25 11:01:00,92.2,74.2,29.79,North,0,0.0,0.0,56,0.00,,,0.00,WUHU216HW,2013-06-25 15:01:00,
2013-06-25 11:03:00,92.3,74.4,29.78,North,0,0.0,0.0,56,0.00,,,0.00,WUHU216HW,2013-06-25 15:03:00,
2013-06-25 11:04:00,92.5,74.5,29.79,North,0,0.0,0.0,56,0.00,,,0.00,WUHU216HW,2013-06-25 15:04:00,
2013-06-25 11:06:00,92.5,73.9,29.79,North,0,0.0,0.0,55,0.00,,,0.00,WUHU216HW,2013-06-25 15:06:00,
2013-06-25 11:08:00,92.5,74.5,29.78,North,0,0.0,0.0,56,0.00,,,0.00,WUHU216HW,2013-06-25 15:08:00,
2013-06-25 11:09:00,92.5,74.5,29.78,North,0,0.0,0.0,56,0.00,,,0.00,WUHU216HW,2013-06-25 15:09:00,
2013-06-25 11:11:00,92.9,74.3,29.78,North,0,0.0,0.0,55,0.00,,,0.00,WUHU216HW,2013-06-25 15:11:00,
2013-06-25 11:12:00,92.9,74.3,29.78,North,0,0.0,0.0,55,0.00,,,0.00,WUHU216HW,2013-06-25 15:12:00,
2013-06-25 11:13:00,93.1,75.0,29.78,North,0,0.0,0.0,56,0.00,,,0.00,WUHU216HW,2013-06-25 15:13:00,
2013-06-25 11:14:00,93.1,73.9,29.78,North,0,0.0,0.0,54,0.00,,,0.00,WUHU216HW,2013-06-25 15:14:00,
2013-06-25 11:16:00,93.2,74.1,29.78,North,0,0.0,0.0,54,0.00,,,0.00,WUHU216HW,2013-06-25 15:16:00,
2013-06-25 11:17:00,93.2,74.1,29.78,North,0,0.0,0.0,54,0.00,,,0.00,WUHU216HW,2013-06-25 15:17:00,
2013-06-25 11:18:00,92.9,73.7,29.78,North,0,0.0,0.0,54,0.00,,,0.00,WUHU216HW,2013-06-25 15:18:00,
2013-06-25 11:19:00,92.9,73.7,29.78,North,0,0.0,0.0,54,0.00,,,0.00,WUHU216HW,2013-06-25 15:19:00,
2013-06-25 11:21:00,92.9,73.7,29.78,North,0,0.0,0.0,54,0.00,,,0.00,WUHU216HW,2013-06-25 15:21:00,
2013-06-25 11:22:00,92.9,73.7,29.78,North,0,0.0,0.0,54,0.00,,,0.00,WUHU216HW,2013-06-25 15:22:00,
2013-06-25 11:23:00,92.9,73.7,29.78,North,0,0.0,0.0,54,0.00,,,0.00,WUHU216HW,2013-06-25 15:23:00,
2013-06-25 11:24:00,92.9,73.7,29.78,North,0,0.0,0.0,54,0.00,,,0.00,WUHU216HW,2013-06-25 15:24:00,
2013-06-25 11:26:00,92.9,74.3,29.78,North,0,0.0,0.0,55,0.00,,,0.00,WUHU216HW,2013-06-25 15:26:00,
2013-06-25 11:27:00,92.9,74.3,29.78,North,0,0.0,0.0,55,0.00,,,0.00,WUHU216HW,2013-06-25 15:27:00,
2013-06-25 11:28:00,93.2,74.1,29.78,North,0,0.0,0.0,54,0.00,,,0.00,WUHU216HW,2013-06-25 15:28:00,
2013-06-25 11:29:00,93.2,74.1,29.78,North,0,0.0,0.0,54,0.00,,,0.00,WUHU216HW,2013-06-25 15:29:00,
2013-06-25 11:30:00,93.2,74.1,29.78,North,0,0.0,0.0,54,0.00,,,0.00,WUHU216HW,2013-06-25 15:30:00,
2013-06-25 11:31:00,93.2,73.5,29.78,North,0,0.0,0.0,53,0.00,,,0.00,WUHU216HW,2013-06-25 15:31:00,
2013-06-25 11:32:00,93.2,74.1,29.78,North,0,0.0,0.0,54,0.00,,,0.00,WUHU216HW,2013-06-25 15:32:00,
2013-06-25 11:33:00,93.2,74.1,29.78,North,0,0.0,0.0,54,0.00,,,0.00,WUHU216HW,2013-06-25 15:33:00,
2013-06-25 11:35:00,93.2,74.1,29.78,North,0,0.0,0.0,54,0.00,,,0.00,WUHU216HW,2013-06-25 15:35:00,
2013-06-25 11:36:00,93.2,74.1,29.78,North,0,0.0,0.0,54,0.00,,,0.00,WUHU216HW,2013-06-25 15:36:00,
2013-06-25 11:37:00,93.2,74.1,29.78,North,0,0.0,0.0,54,0.00,,,0.00,WUHU216HW,2013-06-25 15:37:00,
2013-06-25 11:38:00,93.2,74.1,29.78,North,0,0.0,0.0,54,0.00,,,0.00,WUHU216HW,2013-06-25 15:38:00,
2013-06-25 11:40:00,93.6,73.8,29.78,North,0,0.0,0.0,53,0.00,,,0.00,WUHU216HW,2013-06-25 15:40:00,
2013-06-25 11:41:00,93.8,74.6,29.78,North,0,0.0,0.0,54,0.00,,,0.00,WUHU216HW,2013-06-25 15:41:00,
2013-06-25 11:43:00,94.0,74.2,29.78,North,0,0.0,0.0,53,0.00,,,0.00,WUHU216HW,2013-06-25 15:43:00,
2013-06-25 11:45:00,94.1,74.3,29.78,North,0,0.0,0.0,53,0.00,,,0.00,WUHU216HW,2013-06-25 15:45:00,
2013-06-25 11:46:00,94.1,74.3,29.78,North,0,0.0,0.0,53,0.00,,,0.00,WUHU216HW,2013-06-25 15:46:00,
2013-06-25 11:48:00,94.1,73.8,29.78,North,0,0.0,0.0,52,0.00,,,0.00,WUHU216HW,2013-06-25 15:48:00,
2013-06-25 11:49:00,94.1,73.8,29.78,North,0,0.0,0.0,52,0.00,,,0.00,WUHU216HW,2013-06-25 15:49:00,
2013-06-25 11:51:00,94.3,74.0,29.78,North,0,0.0,0.0,52,0.00,,,0.00,WUHU216HW,2013-06-25 15:51:00,
2013-06-25 11:53:00,94.5,74.2,29.78,North,0,0.0,0.0,52,0.00,,,0.00,WUHU216HW,2013-06-25 15:53:00,
2013-06-25 11:54:00,94.7,74.3,29.78,North,0,0.0,0.0,52,0.00,,,0.00,WUHU216HW,2013-06-25 15:54:00,
2013-06-25 11:56:00,94.7,74.3,29.78,North,0,0.0,0.0,52,0.00,,,0.00,WUHU216HW,2013-06-25 15:56:00,
2013-06-25 11:57:00,94.7,74.3,29.78,North,0,0.0,0.0,52,0.00,,,0.00,WUHU216HW,2013-06-25 15:57:00,
2013-06-25 11:58:00,94.7,74.3,29.78,North,0,0.0,0.0,52,0.00,,,0.00,WUHU216HW,2013-06-25 15:58:00,
2013-06-25 11:59:00,94.7,74.3,29.78,North,0,0.0,0.0,52,0.00,,,0.00,WUHU216HW,2013-06-25 15:59:00,
2013-06-25 12:01:00,94.9,74.5,29.78,North,0,0.0,0.0,52,0.00,,,0.00,WUHU216HW,2013-06-25 16:01:00,
2013-06-25 12:02:00,94.9,74.5,29.78,North,0,0.0,0.0,52,0.00,,,0.00,WUHU216HW,2013-06-25 16:02:00,
2013-06-25 12:03:00,95.0,74.2,29.78,North,0,0.0,0.0,51,0.00,,,0.00,WUHU216HW,2013-06-25 16:03:00,
2013-06-25 12:04:00,95.0,74.2,29.78,North,0,0.0,0.0,51,0.00,,,0.00,WUHU216HW,2013-06-25 16:04:00,
2013-06-25 12:06:00,95.2,73.8,29.78,North,0,0.0,0.0,50,0.00,,,0.00,WUHU216HW,2013-06-25 16:06:00,
2013-06-25 12:07:00,95.2,74.4,29.78,North,0,0.0,0.0,51,0.00,,,0.00,WUHU216HW,2013-06-25 16:07:00,
2013-06-25 12:09:00,95.0,74.2,29.78,North,0,0.0,0.0,51,0.00,,,0.00,WUHU216HW,2013-06-25 16:09:00,
2013-06-25 12:11:00,95.0,74.2,29.78,North,0,0.0,0.0,51,0.00,,,0.00,WUHU216HW,2013-06-25 16:11:00,
2013-06-25 12:12:00,95.0,74.2,29.78,North,0,0.0,0.0,51,0.00,,,0.00,WUHU216HW,2013-06-25 16:12:00,
2013-06-25 12:14:00,95.0,73.6,29.78,North,0,0.0,0.0,50,0.00,,,0.00,WUHU216HW,2013-06-25 16:14:00,
2013-06-25 12:17:00,95.0,74.2,29.78,North,0,0.0,0.0,51,0.00,,,0.00,WUHU216HW,2013-06-25 16:17:00,
2013-06-25 12:18:00,95.0,74.2,29.78,North,0,0.0,0.0,51,0.00,,,0.00,WUHU216HW,2013-06-25 16:18:00,
2013-06-25 12:19:00,95.0,74.2,29.78,North,0,0.0,0.0,51,0.00,,,0.00,WUHU216HW,2013-06-25 16:19:00,
2013-06-25 12:22:00,95.0,73.0,29.78,North,0,0.0,0.0,49,0.00,,,0.00,WUHU216HW,2013-06-25 16:22:00,
2013-06-25 12:23:00,95.0,73.0,29.78,North,0,0.0,0.0,49,0.00,,,0.00,WUHU216HW,2013-06-25 16:23:00,
2013-06-25 12:24:00,95.0,73.6,29.78,North,0,0.0,0.0,50,0.00,,,0.00,WUHU216HW,2013-06-25 16:24:00,
2013-06-25 12:27:00,94.7,73.3,29.78,North,0,0.0,0.0,50,0.00,,,0.00,WUHU216HW,2013-06-25 16:27:00,
2013-06-25 12:28:00,94.7,73.3,29.78,North,0,0.0,0.0,50,0.00,,,0.00,WUHU216HW,2013-06-25 16:28:00,
2013-06-25 12:29:00,94.7,72.6,29.78,North,0,0.0,0.0,49,0.00,,,0.00,WUHU216HW,2013-06-25 16:29:00,
2013-06-25 12:30:00,94.5,73.1,29.78,North,0,0.0,0.0,50,0.00,,,0.00,WUHU216HW,2013-06-25 16:30:00,
2013-06-25 12:32:00,94.3,72.9,29.78,North,0,0.0,0.0,50,0.00,,,0.00,WUHU216HW,2013-06-25 16:32:00,
2013-06-25 12:33:00,94.1,72.7,29.78,North,0,0.0,0.0,50,0.00,,,0.00,WUHU216HW,2013-06-25 16:33:00,
2013-06-25 12:35:00,94.0,72.5,29.78,North,0,0.0,0.0,50,0.00,,,0.00,WUHU216HW,2013-06-25 16:35:00,
2013-06-25 12:37:00,93.8,72.4,29.77,North,0,0.0,0.0,50,0.00,,,0.00,WUHU216HW,2013-06-25 16:37:00,
2013-06-25 12:38:00,93.6,72.7,29.78,North,0,0.0,0.0,51,0.00,,,0.00,WUHU216HW,2013-06-25 16:38:00,
2013-06-25 12:39:00,93.6,72.2,29.78,North,0,0.0,0.0,50,0.00,,,0.00,WUHU216HW,2013-06-25 16:39:00,
2013-06-25 12:40:00,93.4,72.5,29.78,North,0,0.0,0.0,51,0.00,,,0.00,WUHU216HW,2013-06-25 16:40:00,
2013-06-25 12:43:00,93.1,72.8,29.77,North,0,0.0,0.0,52,0.00,,,0.00,WUHU216HW,2013-06-25 16:43:00,
2013-06-25 12:44:00,93.1,72.8,29.77,North,0,0.0,0.0,52,0.00,,,0.00,WUHU216HW,2013-06-25 16:44:00,
2013-06-25 12:45:00,93.1,72.2,29.77,North,0,0.0,0.0,51,0.00,,,0.00,WUHU216HW,2013-06-25 16:45:00,
2013-06-25 12:48:00,93.2,72.9,29.77,North,0,0.0,0.0,52,0.00,,,0.00,WUHU216HW,2013-06-25 16:48:00,
2013-06-25 12:49:00,93.2,72.9,29.77,North,0,0.0,0.0,52,0.00,,,0.00,WUHU216HW,2013-06-25 16:49:00,
2013-06-25 12:50:00,93.8,73.4,29.77,North,0,0.0,0.0,52,0.00,,,0.00,WUHU216HW,2013-06-25 16:50:00,
2013-06-25 12:54:00,94.0,73.6,29.76,North,0,0.0,0.0,52,0.00,,,0.00,WUHU216HW,2013-06-25 16:54:00,
2013-06-25 12:56:00,94.5,73.6,29.76,North,0,0.0,0.0,51,0.00,,,0.00,WUHU216HW,2013-06-25 16:56:00,
2013-06-25 12:59:00,94.5,73.6,29.76,North,0,0.0,0.0,51,0.00,,,0.00,WUHU216HW,2013-06-25 16:59:00,
2013-06-25 13:00:00,94.5,73.6,29.76,North,0,0.0,0.0,51,0.00,,,0.00,WUHU216HW,2013-06-25 17:00:00,
2013-06-25 13:01:00,94.5,73.6,29.77,North,0,0.0,0.0,51,0.00,,,0.00,WUHU216HW,2013-06-25 17:01:00,
2013-06-25 13:04:00,94.5,73.6,29.76,North,0,0.0,0.0,51,0.00,,,0.00,WUHU216HW,2013-06-25 17:04:00,
2013-06-25 13:05:00,94.7,73.8,29.76,North,0,0.0,0.0,51,0.00,,,0.00,WUHU216HW,2013-06-25 17:05:00,
2013-06-25 13:06:00,94.9,74.0,29.76,North,0,0.0,0.0,51,0.00,,,0.00,WUHU216HW,2013-06-25 17:06:00,
2013-06-25 13:09:00,95.0,73.6,29.76,North,0,0.0,0.0,50,0.00,,,0.00,WUHU216HW,2013-06-25 17:09:00,
2013-06-25 13:10:00,95.0,73.6,29.76,North,0,0.0,0.0,50,0.00,,,0.00,WUHU216HW,2013-06-25 17:10:00,
2013-06-25 13:11:00,95.2,73.8,29.76,North,0,0.0,0.0,50,0.00,,,0.00,WUHU216HW,2013-06-25 17:11:00,
2013-06-25 13:14:00,95.4,74.0,29.76,North,0,0.0,0.0,50,0.00,,,0.00,WUHU216HW,2013-06-25 17:14:00,
2013-06-25 13:15:00,95.4,74.0,29.76,North,0,0.0,0.0,50,0.00,,,0.00,WUHU216HW,2013-06-25 17:15:00,
2013-06-25 13:16:00,95.6,74.1,29.76,North,0,0.0,0.0,50,0.00,,,0.00,WUHU216HW,2013-06-25 17:16:00,
2013-06-25 13:17:00,95.6,74.1,29.76,North,0,0.0,0.0,50,0.00,,,0.00,WUHU216HW,2013-06-25 17:17:00,
2013-06-25 13:19:00,95.8,74.3,29.76,North,0,0.0,0.0,50,0.00,,,0.00,WUHU216HW,2013-06-25 17:19:00,
2013-06-25 13:20:00,95.9,74.4,29.76,North,0,0.0,0.0,50,0.00,,,0.00,WUHU216HW,2013-06-25 17:20:00,
2013-06-25 13:21:00,95.9,73.8,29.76,North,0,0.0,0.0,49,0.00,,,0.00,WUHU216HW,2013-06-25 17:21:00,
2013-06-25 13:22:00,96.1,73.3,29.76,North,0,0.0,0.0,48,0.00,,,0.00,WUHU216HW,2013-06-25 17:22:00,
2013-06-25 13:24:00,95.9,73.1,29.75,North,0,0.0,0.0,48,0.00,,,0.00,WUHU216HW,2013-06-25 17:24:00,
2013-06-25 13:26:00,95.8,72.9,29.75,North,0,0.0,0.0,48,0.00,,,0.00,WUHU216HW,2013-06-25 17:26:00,
2013-06-25 13:27:00,95.8,73.6,29.75,North,0,0.0,0.0,49,0.00,,,0.00,WUHU216HW,2013-06-25 17:27:00,
2013-06-25 13:28:00,95.8,72.9,29.75,North,0,0.0,0.0,48,0.00,,,0.00,WUHU216HW,2013-06-25 17:28:00,
2013-06-25 13:29:00,95.4,72.6,29.75,North,0,0.0,0.0,48,0.00,,,0.00,WUHU216HW,2013-06-25 17:29:00,
2013-06-25 13:31:00,95.2,72.5,29.75,North,0,0.0,0.0,48,0.00,,,0.00,WUHU216HW,2013-06-25 17:31:00,
2013-06-25 13:32:00,95.0,72.3,29.75,North,0,0.0,0.0,48,0.00,,,0.00,WUHU216HW,2013-06-25 17:32:00,
2013-06-25 13:33:00,94.9,72.1,29.75,North,0,0.0,0.0,48,0.00,,,0.00,WUHU216HW,2013-06-25 17:33:00,
2013-06-25 13:34:00,94.7,71.9,29.75,North,0,0.0,0.0,48,0.00,,,0.00,WUHU216HW,2013-06-25 17:34:00,
2013-06-25 13:37:00,94.3,72.3,29.75,North,0,0.0,0.0,49,0.00,,,0.00,WUHU216HW,2013-06-25 17:37:00,
2013-06-25 13:38:00,94.3,72.9,29.75,North,0,0.0,0.0,50,0.00,,,0.00,WUHU216HW,2013-06-25 17:38:00,
2013-06-25 13:39:00,94.1,72.1,29.75,North,0,0.0,0.0,49,0.00,,,0.00,WUHU216HW,2013-06-25 17:39:00,
2013-06-25 13:42:00,94.1,72.7,29.75,North,0,0.0,0.0,50,0.00,,,0.00,WUHU216HW,2013-06-25 17:42:00,
2013-06-25 13:43:00,94.1,72.7,29.75,North,0,0.0,0.0,50,0.00,,,0.00,WUHU216HW,2013-06-25 17:43:00,
2013-06-25 13:44:00,94.1,72.7,29.75,North,0,0.0,0.0,50,0.00,,,0.00,WUHU216HW,2013-06-25 17:44:00,
2013-06-25 13:45:00,94.0,71.9,29.75,North,0,0.0,0.0,49,0.00,,,0.00,WUHU216HW,2013-06-25 17:45:00,
2013-06-25 13:47:00,94.0,71.9,29.75,North,0,0.0,0.0,49,0.00,,,0.00,WUHU216HW,2013-06-25 17:47:00,
2013-06-25 13:48:00,94.0,71.9,29.75,North,0,0.0,0.0,49,0.00,,,0.00,WUHU216HW,2013-06-25 17:48:00,
2013-06-25 13:49:00,94.0,71.9,29.75,North,0,0.0,0.0,49,0.00,,,0.00,WUHU216HW,2013-06-25 17:49:00,
2013-06-25 13:50:00,93.4,72.0,29.74,North,0,0.0,0.0,50,0.00,,,0.00,WUHU216HW,2013-06-25 17:50:00,
2013-06-25 13:52:00,93.2,71.8,29.74,North,0,0.0,0.0,50,0.00,,,0.00,WUHU216HW,2013-06-25 17:52:00,
2013-06-25 13:54:00,93.2,71.8,29.74,North,0,0.0,0.0,50,0.00,,,0.00,WUHU216HW,2013-06-25 17:54:00,
2013-06-25 13:55:00,93.2,71.8,29.74,North,0,0.0,0.0,50,0.00,,,0.00,WUHU216HW,2013-06-25 17:55:00,
2013-06-25 13:57:00,93.2,71.8,29.74,North,0,0.0,0.0,50,0.00,,,0.00,WUHU216HW,2013-06-25 17:57:00,
2013-06-25 13:59:00,93.1,71.6,29.74,North,0,0.0,0.0,50,0.00,,,0.00,WUHU216HW,2013-06-25 17:59:00,
2013-06-25 14:00:00,92.9,71.5,29.74,North,0,0.0,0.0,50,0.00,,,0.00,WUHU216HW,2013-06-25 18:00:00,
2013-06-25 14:02:00,93.1,72.2,29.74,North,0,0.0,0.0,51,0.00,,,0.00,WUHU216HW,2013-06-25 18:02:00,
2013-06-25 14:04:00,93.1,71.6,29.74,North,0,0.0,0.0,50,0.00,,,0.00,WUHU216HW,2013-06-25 18:04:00,
2013-06-25 14:05:00,93.1,71.6,29.74,North,0,0.0,0.0,50,0.00,,,0.00,WUHU216HW,2013-06-25 18:05:00,
2013-06-25 14:07:00,92.9,71.5,29.74,North,0,0.0,0.0,50,0.00,,,0.00,WUHU216HW,2013-06-25 18:07:00,
2013-06-25 14:09:00,92.9,72.1,29.74,North,0,0.0,0.0,51,0.00,,,0.00,WUHU216HW,2013-06-25 18:09:00,
2013-06-25 14:10:00,92.9,72.1,29.74,North,0,0.0,0.0,51,0.00,,,0.00,WUHU216HW,2013-06-25 18:10:00,
2013-06-25 14:11:00,93.1,71.6,29.74,North,0,0.0,0.0,50,0.00,,,0.00,WUHU216HW,2013-06-25 18:11:00,
2013-06-25 14:12:00,93.1,71.6,29.74,North,0,0.0,0.0,50,0.00,,,0.00,WUHU216HW,2013-06-25 18:12:00,
2013-06-25 14:14:00,93.1,71.6,29.74,North,0,0.0,0.0,50,0.00,,,0.00,WUHU216HW,2013-06-25 18:14:00,
2013-06-25 14:15:00,93.1,71.6,29.74,North,0,0.0,0.0,50,0.00,,,0.00,WUHU216HW,2013-06-25 18:15:00,
2013-06-25 14:16:00,93.1,71.6,29.74,North,0,0.0,0.0,50,0.00,,,0.00,WUHU216HW,2013-06-25 18:16:00,
2013-06-25 14:18:00,92.9,71.5,29.73,North,0,0.0,0.0,50,0.00,,,0.00,WUHU216HW,2013-06-25 18:18:00,
2013-06-25 14:20:00,92.7,71.4,29.74,North,0,0.0,0.0,50,0.00,,,0.00,WUHU216HW,2013-06-25 18:20:00,
2013-06-25 14:21:00,92.5,71.2,29.74,North,0,0.0,0.0,50,0.00,,,0.00,WUHU216HW,2013-06-25 18:21:00,
2013-06-25 14:23:00,92.5,71.2,29.74,North,0,0.0,0.0,50,0.00,,,0.00,WUHU216HW,2013-06-25 18:23:00,
2013-06-25 14:25:00,92.5,71.7,29.73,North,0,0.0,0.0,51,0.00,,,0.00,WUHU216HW,2013-06-25 18:25:00,
2013-06-25 14:27:00,92.3,71.0,29.73,North,0,0.0,0.0,50,0.00,,,0.00,WUHU216HW,2013-06-25 18:27:00,
2013-06-25 14:28:00,92.2,71.4,29.73,North,0,0.0,0.0,51,0.00,,,0.00,WUHU216HW,2013-06-25 18:28:00,
2013-06-25 14:30:00,92.2,71.4,29.73,North,0,0.0,0.0,51,0.00,,,0.00,WUHU216HW,2013-06-25 18:30:00,
2013-06-25 14:31:00,92.2,71.4,29.73,North,0,0.0,0.0,51,0.00,,,0.00,WUHU216HW,2013-06-25 18:31:00,
2013-06-25 14:33:00,91.8,71.1,29.73,North,0,0.0,0.0,51,0.00,,,0.00,WUHU216HW,2013-06-25 18:33:00,
2013-06-25 14:35:00,91.8,71.7,29.73,North,0,0.0,0.0,52,0.00,,,0.00,WUHU216HW,2013-06-25 18:35:00,
2013-06-25 14:36:00,91.8,71.7,29.73,North,0,0.0,0.0,52,0.00,,,0.00,WUHU216HW,2013-06-25 18:36:00,
2013-06-25 14:37:00,91.8,71.7,29.73,North,0,0.0,0.0,52,0.00,,,0.00,WUHU216HW,2013-06-25 18:37:00,
2013-06-25 14:38:00,91.6,71.5,29.73,North,0,0.0,0.0,52,0.00,,,0.00,WUHU216HW,2013-06-25 18:38:00,
2013-06-25 14:41:00,91.8,71.7,29.73,North,0,0.0,0.0,52,0.00,,,0.00,WUHU216HW,2013-06-25 18:41:00,
2013-06-25 14:42:00,91.8,71.7,29.73,North,0,0.0,0.0,52,0.00,,,0.00,WUHU216HW,2013-06-25 18:42:00,
2013-06-25 14:43:00,91.8,71.7,29.73,North,0,0.0,0.0,52,0.00,,,0.00,WUHU216HW,2013-06-25 18:43:00,
2013-06-25 14:46:00,92.0,71.2,29.73,North,0,0.0,0.0,51,0.00,,,0.00,WUHU216HW,2013-06-25 18:46:00,
2013-06-25 14:47:00,91.8,71.1,29.73,North,0,0.0,0.0,51,0.00,,,0.00,WUHU216HW,2013-06-25 18:47:00,
2013-06-25 14:48:00,91.8,71.1,29.73,North,0,0.0,0.0,51,0.00,,,0.00,WUHU216HW,2013-06-25 18:48:00,
2013-06-25 14:49:00,91.8,71.1,29.73,North,0,0.0,0.0,51,0.00,,,0.00,WUHU216HW,2013-06-25 18:49:00,
2013-06-25 14:51:00,91.8,71.1,29.73,North,0,0.0,0.0,51,0.00,,,0.00,WUHU216HW,2013-06-25 18:51:00,
2013-06-25 14:52:00,91.8,71.7,29.73,North,0,0.0,0.0,52,0.00,,,0.00,WUHU216HW,2013-06-25 18:52:00,
2013-06-25 14:53:00,91.8,71.7,29.73,North,0,0.0,0.0,52,0.00,,,0.00,WUHU216HW,2013-06-25 18:53:00,
2013-06-25 14:54:00,91.8,71.7,29.73,North,0,0.0,0.0,52,0.00,,,0.00,WUHU216HW,2013-06-25 18:54:00,
2013-06-25 14:56:00,91.8,71.7,29.72,North,0,0.0,0.0,52,0.00,,,0.00,WUHU216HW,2013-06-25 18:56:00,
2013-06-25 14:57:00,91.8,71.7,29.72,North,0,0.0,0.0,52,0.00,,,0.00,WUHU216HW,2013-06-25 18:57:00,
2013-06-25 14:59:00,91.6,71.5,29.72,North,0,0.0,0.0,52,0.00,,,0.00,WUHU216HW,2013-06-25 18:59:00,
2013-06-25 15:01:00,91.8,71.1,29.72,North,0,0.0,0.0,51,0.00,,,0.00,WUHU216HW,2013-06-25 19:01:00,
2013-06-25 15:02:00,91.8,71.1,29.72,North,0,0.0,0.0,51,0.00,,,0.00,WUHU216HW,2013-06-25 19:02:00,
2013-06-25 15:04:00,91.8,71.7,29.72,North,0,0.0,0.0,52,0.00,,,0.00,WUHU216HW,2013-06-25 19:04:00,
2013-06-25 15:06:00,92.0,71.8,29.72,North,0,0.0,0.0,52,0.00,,,0.00,WUHU216HW,2013-06-25 19:06:00,
2013-06-25 15:07:00,92.0,71.8,29.72,North,0,0.0,0.0,52,0.00,,,0.00,WUHU216HW,2013-06-25 19:07:00,
2013-06-25 15:08:00,92.2,71.9,29.72,North,0,0.0,0.0,52,0.00,,,0.00,WUHU216HW,2013-06-25 19:08:00,
2013-06-25 15:09:00,92.2,71.9,29.72,North,0,0.0,0.0,52,0.00,,,0.00,WUHU216HW,2013-06-25 19:09:00,
2013-06-25 15:12:00,92.5,72.3,29.72,North,0,0.0,0.0,52,0.00,,,0.00,WUHU216HW,2013-06-25 19:12:00,
2013-06-25 15:13:00,92.5,72.3,29.72,North,0,0.0,0.0,52,0.00,,,0.00,WUHU216HW,2013-06-25 19:13:00,
2013-06-25 15:14:00,92.7,71.9,29.72,North,0,0.0,0.0,51,0.00,,,0.00,WUHU216HW,2013-06-25 19:14:00,
2013-06-25 15:17:00,92.7,71.9,29.72,North,0,0.0,0.0,51,0.00,,,0.00,WUHU216HW,2013-06-25 19:17:00,
2013-06-25 15:18:00,92.7,71.4,29.72,North,0,0.0,0.0,50,0.00,,,0.00,WUHU216HW,2013-06-25 19:18:00,
2013-06-25 15:20:00,92.5,71.2,29.72,North,0,0.0,0.0,50,0.00,,,0.00,WUHU216HW,2013-06-25 19:20:00,
2013-06-25 15:22:00,92.5,71.7,29.72,North,0,0.0,0.0,51,0.00,,,0.00,WUHU216HW,2013-06-25 19:22:00,
2013-06-25 15:23:00,92.5,71.7,29.72,North,0,0.0,0.0,51,0.00,,,0.00,WUHU216HW,2013-06-25 19:23:00,
2013-06-25 15:24:00,92.5,71.7,29.72,North,0,0.0,0.0,51,0.00,,,0.00,WUHU216HW,2013-06-25 19:24:00,
2013-06-25 15:25:00,92.5,71.7,29.72,North,0,0.0,0.0,51,0.00,,,0.00,WUHU216HW,2013-06-25 19:25:00,
2013-06-25 15:27:00,92.5,71.7,29.72,North,0,0.0,0.0,51,0.00,,,0.00,WUHU216HW,2013-06-25 19:27:00,
2013-06-25 15:28:00,92.5,71.7,29.72,North,0,0.0,0.0,51,0.00,,,0.00,WUHU216HW,2013-06-25 19:28:00,
2013-06-25 15:29:00,92.5,71.7,29.72,North,0,0.0,0.0,51,0.00,,,0.00,WUHU216HW,2013-06-25 19:29:00,
2013-06-25 15:30:00,92.3,71.6,29.72,North,0,0.0,0.0,51,0.00,,,0.00,WUHU216HW,2013-06-25 19:30:00,
2013-06-25 15:32:00,92.5,71.7,29.72,North,0,0.0,0.0,51,0.00,,,0.00,WUHU216HW,2013-06-25 19:32:00,
2013-06-25 15:33:00,92.5,71.7,29.71,North,0,0.0,0.0,51,0.00,,,0.00,WUHU216HW,2013-06-25 19:33:00,
2013-06-25 15:34:00,92.5,71.7,29.72,North,0,0.0,0.0,51,0.00,,,0.00,WUHU216HW,2013-06-25 19:34:00,
2013-06-25 15:35:00,92.5,71.7,29.72,North,0,0.0,0.0,51,0.00,,,0.00,WUHU216HW,2013-06-25 19:35:00,
2013-06-25 15:37:00,93.6,71.6,29.72,North,0,0.0,0.0,49,0.00,,,0.00,WUHU216HW,2013-06-25 19:37:00,
2013-06-25 15:38:00,93.6,71.6,29.71,North,0,0.0,0.0,49,0.00,,,0.00,WUHU216HW,2013-06-25 19:38:00,
2013-06-25 15:39:00,93.6,71.6,29.71,North,0,0.0,0.0,49,0.00,,,0.00,WUHU216HW,2013-06-25 19:39:00,
2013-06-25 15:40:00,93.4,71.4,29.71,North,0,0.0,0.0,49,0.00,,,0.00,WUHU216HW,2013-06-25 19:40:00,
2013-06-25 15:41:00,93.4,71.4,29.71,North,0,0.0,0.0,49,0.00,,,0.00,WUHU216HW,2013-06-25 19:41:00,
2013-06-25 15:42:00,93.1,71.0,29.71,North,0,0.0,0.0,49,0.00,,,0.00,WUHU216HW,2013-06-25 19:42:00,
2013-06-25 15:43:00,93.1,71.6,29.71,North,0,0.0,0.0,50,0.00,,,0.00,WUHU216HW,2013-06-25 19:43:00,
2013-06-25 15:45:00,92.7,71.4,29.71,North,0,0.0,0.0,50,0.00,,,0.00,WUHU216HW,2013-06-25 19:45:00,
2013-06-25 15:46:00,92.5,71.2,29.71,North,0,0.0,0.0,50,0.00,,,0.00,WUHU216HW,2013-06-25 19:46:00,
2013-06-25 15:47:00,92.3,71.0,29.71,North,0,0.0,0.0,50,0.00,,,0.00,WUHU216HW,2013-06-25 19:47:00,
2013-06-25 15:49:00,92.0,70.7,29.71,North,0,0.0,0.0,50,0.00,,,0.00,WUHU216HW,2013-06-25 19:49:00,
2013-06-25 15:50:00,91.6,70.4,29.71,North,0,0.0,0.0,50,0.00,,,0.00,WUHU216HW,2013-06-25 19:50:00,
2013-06-25 15:51:00,91.3,70.6,29.71,North,0,0.0,0.0,51,0.00,,,0.00,WUHU216HW,2013-06-25 19:51:00,
2013-06-25 15:53:00,91.1,70.4,29.71,North,0,0.0,0.0,51,0.00,,,0.00,WUHU216HW,2013-06-25 19:53:00,
2013-06-25 15:54:00,90.9,70.8,29.71,North,0,0.0,0.0,52,0.00,,,0.00,WUHU216HW,2013-06-25 19:54:00,
2013-06-25 15:55:00,90.9,70.8,29.71,North,0,0.0,0.0,52,0.00,,,0.00,WUHU216HW,2013-06-25 19:55:00,
2013-06-25 15:56:00,90.9,70.8,29.71,North,0,0.0,0.0,52,0.00,,,0.00,WUHU216HW,2013-06-25 19:56:00,
2013-06-25 15:58:00,90.7,70.7,29.71,North,0,0.0,0.0,52,0.00,,,0.00,WUHU216HW,2013-06-25 19:58:00,
2013-06-25 15:59:00,90.7,70.7,29.71,North,0,0.0,0.0,52,0.00,,,0.00,WUHU216HW,2013-06-25 19:59:00,
2013-06-25 16:00:00,90.4,70.3,29.71,North,0,0.0,0.0,52,0.00,,,0.00,WUHU216HW,2013-06-25 20:00:00,
2013-06-25 16:01:00,90.4,70.3,29.71,North,0,0.0,0.0,52,0.00,,,0.00,WUHU216HW,2013-06-25 20:01:00,
2013-06-25 16:03:00,90.0,70.6,29.71,North,0,0.0,0.0,53,0.00,,,0.00,WUHU216HW,2013-06-25 20:03:00,
2013-06-25 16:05:00,89.6,70.2,29.71,North,0,0.0,0.0,53,0.00,,,0.00,WUHU216HW,2013-06-25 20:05:00,
2013-06-25 16:06:00,89.6,70.2,29.70,North,0,0.0,0.0,53,0.00,,,0.00,WUHU216HW,2013-06-25 20:06:00,
2013-06-25 16:07:00,89.5,70.0,29.70,North,0,0.0,0.0,53,0.00,,,0.00,WUHU216HW,2013-06-25 20:07:00,
2013-06-25 16:08:00,89.5,70.0,29.70,North,0,0.0,0.0,53,0.00,,,0.00,WUHU216HW,2013-06-25 20:08:00,
2013-06-25 16:10:00,89.3,70.4,29.70,North,0,0.0,0.0,54,0.00,,,0.00,WUHU216HW,2013-06-25 20:10:00,
2013-06-25 16:11:00,89.1,70.3,29.70,North,0,0.0,0.0,54,0.00,,,0.00,WUHU216HW,2013-06-25 20:11:00,
2013-06-25 16:12:00,89.1,70.3,29.70,North,0,0.0,0.0,54,0.00,,,0.00,WUHU216HW,2013-06-25 20:12:00,
2013-06-25 16:13:00,89.1,70.3,29.70,North,0,0.0,0.0,54,0.00,,,0.00,WUHU216HW,2013-06-25 20:13:00,
2013-06-25 16:15:00,88.9,70.1,29.70,North,0,0.0,0.0,54,0.00,,,0.00,WUHU216HW,2013-06-25 20:15:00,
2013-06-25 16:16:00,88.9,70.1,29.70,North,0,0.0,0.0,54,0.00,,,0.00,WUHU216HW,2013-06-25 20:16:00,
2013-06-25 16:17:00,88.9,70.1,29.70,North,0,0.0,0.0,54,0.00,,,0.00,WUHU216HW,2013-06-25 20:17:00,
2013-06-25 16:18:00,88.9,70.1,29.70,North,0,0.0,0.0,54,0.00,,,0.00,WUHU216HW,2013-06-25 20:18:00,
2013-06-25 16:20:00,88.7,70.5,29.70,North,0,0.0,0.0,55,0.00,,,0.00,WUHU216HW,2013-06-25 20:20:00,
2013-06-25 16:21:00,88.7,70.5,29.70,North,0,0.0,0.0,55,0.00,,,0.00,WUHU216HW,2013-06-25 20:21:00,
2013-06-25 16:22:00,88.6,70.3,29.70,North,0,0.0,0.0,55,0.00,,,0.00,WUHU216HW,2013-06-25 20:22:00,
2013-06-25 16:23:00,88.6,70.3,29.70,North,0,0.0,0.0,55,0.00,,,0.00,WUHU216HW,2013-06-25 20:23:00,
2013-06-25 16:25:00,88.4,70.1,29.70,North,0,0.0,0.0,55,0.00,,,0.00,WUHU216HW,2013-06-25 20:25:00,
2013-06-25 16:26:00,88.2,70.0,29.70,North,0,0.0,0.0,55,0.00,,,0.00,WUHU216HW,2013-06-25 20:26:00,
2013-06-25 16:27:00,88.2,70.0,29.70,North,0,0.0,0.0,55,0.00,,,0.00,WUHU216HW,2013-06-25 20:27:00,
2013-06-25 16:28:00,88.0,69.9,29.70,North,0,0.0,0.0,55,0.00,,,0.00,WUHU216HW,2013-06-25 20:28:00,
2013-06-25 16:31:00,87.8,70.2,29.70,North,0,0.0,0.0,56,0.00,,,0.00,WUHU216HW,2013-06-25 20:31:00,
2013-06-25 16:32:00,87.7,70.0,29.70,North,0,0.0,0.0,56,0.00,,,0.00,WUHU216HW,2013-06-25 20:32:00,
2013-06-25 16:33:00,87.7,70.0,29.70,North,0,0.0,0.0,56,0.00,,,0.00,WUHU216HW,2013-06-25 20:33:00,
2013-06-25 16:34:00,87.7,70.0,29.70,North,0,0.0,0.0,56,0.00,,,0.00,WUHU216HW,2013-06-25 20:34:00,
2013-06-25 16:36:00,87.7,70.0,29.70,North,0,0.0,0.0,56,0.00,,,0.00,WUHU216HW,2013-06-25 20:36:00,
2013-06-25 16:37:00,87.7,70.0,29.69,North,0,0.0,0.0,56,0.00,,,0.00,WUHU216HW,2013-06-25 20:37:00,
2013-06-25 16:39:00,88.0,70.4,29.70,North,0,0.0,0.0,56,0.00,,,0.00,WUHU216HW,2013-06-25 20:39:00,
2013-06-25 16:41:00,88.0,70.4,29.70,North,0,0.0,0.0,56,0.00,,,0.00,WUHU216HW,2013-06-25 20:41:00,
2013-06-25 16:42:00,88.0,70.4,29.70,North,0,0.0,0.0,56,0.00,,,0.00,WUHU216HW,2013-06-25 20:42:00,
2013-06-25 16:43:00,88.0,70.4,29.70,North,0,0.0,0.0,56,0.00,,,0.00,WUHU216HW,2013-06-25 20:43:00,
2013-06-25 16:44:00,87.8,70.2,29.70,North,0,0.0,0.0,56,0.00,,,0.00,WUHU216HW,2013-06-25 20:44:00,
2013-06-25 16:46:00,87.8,70.2,29.70,North,0,0.0,0.0,56,0.00,,,0.00,WUHU216HW,2013-06-25 20:46:00,
2013-06-25 16:47:00,87.8,70.2,29.70,North,0,0.0,0.0,56,0.00,,,0.00,WUHU216HW,2013-06-25 20:47:00,
2013-06-25 16:48:00,87.8,70.2,29.70,North,0,0.0,0.0,56,0.00,,,0.00,WUHU216HW,2013-06-25 20:48:00,
2013-06-25 16:49:00,87.8,70.2,29.70,North,0,0.0,0.0,56,0.00,,,0.00,WUHU216HW,2013-06-25 20:49:00,
2013-06-25 16:51:00,88.2,70.6,29.70,North,0,0.0,0.0,56,0.00,,,0.00,WUHU216HW,2013-06-25 20:51:00,
2013-06-25 16:52:00,88.2,70.6,29.70,North,0,0.0,0.0,56,0.00,,,0.00,WUHU216HW,2013-06-25 20:52:00,
2013-06-25 16:53:00,88.2,70.6,29.70,North,0,0.0,0.0,56,0.00,,,0.00,WUHU216HW,2013-06-25 20:53:00,
2013-06-25 16:54:00,88.4,70.7,29.70,North,0,0.0,0.0,56,0.00,,,0.00,WUHU216HW,2013-06-25 20:54:00,
2013-06-25 16:56:00,88.4,70.7,29.70,North,0,0.0,0.0,56,0.00,,,0.00,WUHU216HW,2013-06-25 20:56:00,
2013-06-25 16:57:00,88.4,70.7,29.70,North,0,0.0,0.0,56,0.00,,,0.00,WUHU216HW,2013-06-25 20:57:00,
2013-06-25 16:58:00,88.4,70.1,29.70,North,0,0.0,0.0,55,0.00,,,0.00,WUHU216HW,2013-06-25 20:58:00,
2013-06-25 16:59:00,88.4,69.6,29.70,North,0,0.0,0.0,54,0.00,,,0.00,WUHU216HW,2013-06-25 20:59:00,
2013-06-25 17:02:00,88.9,69.6,29.70,North,0,0.0,0.0,53,0.00,,,0.00,WUHU216HW,2013-06-25 21:02:00,
2013-06-25 17:03:00,89.8,70.4,29.70,North,0,0.0,0.0,53,0.00,,,0.00,WUHU216HW,2013-06-25 21:03:00,
2013-06-25 17:04:00,90.0,70.0,29.70,North,0,0.0,0.0,52,0.00,,,0.00,WUHU216HW,2013-06-25 21:04:00,
2013-06-25 17:07:00,90.7,70.1,29.70,North,0,0.0,0.0,51,0.00,,,0.00,WUHU216HW,2013-06-25 21:07:00,
2013-06-25 17:08:00,91.3,70.0,29.70,North,0,0.0,0.0,50,0.00,,,0.00,WUHU216HW,2013-06-25 21:08:00,
2013-06-25 17:10:00,91.4,69.6,29.70,North,0,0.0,0.0,49,0.00,,,0.00,WUHU216HW,2013-06-25 21:10:00,
2013-06-25 17:12:00,91.8,69.8,29.70,North,0,0.0,0.0,49,0.00,,,0.00,WUHU216HW,2013-06-25 21:12:00,
2013-06-25 17:14:00,92.0,69.4,29.70,North,0,0.0,0.0,48,0.00,,,0.00,WUHU216HW,2013-06-25 21:14:00,
2013-06-25 17:15:00,92.2,69.6,29.70,North,0,0.0,0.0,48,0.00,,,0.00,WUHU216HW,2013-06-25 21:15:00,
2013-06-25 17:17:00,92.2,69.6,29.70,North,0,0.0,0.0,48,0.00,,,0.00,WUHU216HW,2013-06-25 21:17:00,
2013-06-25 17:18:00,92.2,69.6,29.70,North,0,0.0,0.0,48,0.00,,,0.00,WUHU216HW,2013-06-25 21:18:00,
2013-06-25 17:19:00,92.2,69.0,29.70,North,0,0.0,0.0,47,0.00,,,0.00,WUHU216HW,2013-06-25 21:19:00,
2013-06-25 17:21:00,92.2,69.0,29.70,North,0,0.0,0.0,47,0.00,,,0.00,WUHU216HW,2013-06-25 21:21:00,
2013-06-25 17:22:00,92.3,69.0,29.69,North,0,0.0,0.0,47,0.00,,,0.00,WUHU216HW,2013-06-25 21:22:00,
2013-06-25 17:23:00,92.3,69.0,29.69,North,0,0.0,0.0,47,0.00,,,0.00,WUHU216HW,2013-06-25 21:23:00,
2013-06-25 17:24:00,92.2,69.0,29.69,North,0,0.0,0.0,47,0.00,,,0.00,WUHU216HW,2013-06-25 21:24:00,
2013-06-25 17:26:00,92.2,69.0,29.69,North,0,0.0,0.0,47,0.00,,,0.00,WUHU216HW,2013-06-25 21:26:00,
2013-06-25 17:28:00,92.2,69.6,29.69,North,0,0.0,0.0,48,0.00,,,0.00,WUHU216HW,2013-06-25 21:28:00,
2013-06-25 17:29:00,92.2,69.6,29.69,North,0,0.0,0.0,48,0.00,,,0.00,WUHU216HW,2013-06-25 21:29:00,
2013-06-25 17:31:00,92.2,69.6,29.69,North,0,0.0,0.0,48,0.00,,,0.00,WUHU216HW,2013-06-25 21:31:00,
2013-06-25 17:33:00,92.2,69.6,29.69,North,0,0.0,0.0,48,0.00,,,0.00,WUHU216HW,2013-06-25 21:33:00,
2013-06-25 17:34:00,92.2,69.6,29.69,North,0,0.0,0.0,48,0.00,,,0.00,WUHU216HW,2013-06-25 21:34:00,
2013-06-25 17:36:00,92.2,69.0,29.69,North,0,0.0,0.0,47,0.00,,,0.00,WUHU216HW,2013-06-25 21:36:00,
2013-06-25 17:38:00,92.2,69.6,29.69,North,0,0.0,0.0,48,0.00,,,0.00,WUHU216HW,2013-06-25 21:38:00,
2013-06-25 17:39:00,92.2,69.6,29.69,North,0,0.0,0.0,48,0.00,,,0.00,WUHU216HW,2013-06-25 21:39:00,
2013-06-25 17:40:00,92.3,69.8,29.68,North,0,0.0,0.0,48,0.00,,,0.00,WUHU216HW,2013-06-25 21:40:00,
2013-06-25 17:41:00,92.3,69.8,29.68,North,0,0.0,0.0,48,0.00,,,0.00,WUHU216HW,2013-06-25 21:41:00,
2013-06-25 17:43:00,92.2,69.6,29.68,North,0,0.0,0.0,48,0.00,,,0.00,WUHU216HW,2013-06-25 21:43:00,
2013-06-25 17:44:00,92.2,69.6,29.68,North,0,0.0,0.0,48,0.00,,,0.00,WUHU216HW,2013-06-25 21:44:00,
2013-06-25 17:45:00,92.2,69.6,29.68,North,0,0.0,0.0,48,0.00,,,0.00,WUHU216HW,2013-06-25 21:45:00,
2013-06-25 17:48:00,91.8,69.2,29.69,North,0,0.0,0.0,48,0.00,,,0.00,WUHU216HW,2013-06-25 21:48:00,
2013-06-25 17:49:00,91.8,69.2,29.69,North,0,0.0,0.0,48,0.00,,,0.00,WUHU216HW,2013-06-25 21:49:00,
2013-06-25 17:50:00,91.6,69.8,29.68,North,0,0.0,0.0,49,0.00,,,0.00,WUHU216HW,2013-06-25 21:50:00,
2013-06-25 17:53:00,91.3,69.4,29.68,North,0,0.0,0.0,49,0.00,,,0.00,WUHU216HW,2013-06-25 21:53:00,
2013-06-25 17:54:00,91.1,69.2,29.68,North,0,0.0,0.0,49,0.00,,,0.00,WUHU216HW,2013-06-25 21:54:00,
2013-06-25 17:55:00,90.9,69.0,29.68,North,0,0.0,0.0,49,0.00,,,0.00,WUHU216HW,2013-06-25 21:55:00,
2013-06-25 17:56:00,90.9,69.8,29.68,North,0,0.0,0.0,50,0.00,,,0.00,WUHU216HW,2013-06-25 21:56:00,
2013-06-25 17:58:00,90.5,69.4,29.68,North,0,0.0,0.0,50,0.00,,,0.00,WUHU216HW,2013-06-25 21:58:00,
2013-06-25 17:59:00,90.5,69.4,29.68,North,0,0.0,0.0,50,0.00,,,0.00,WUHU216HW,2013-06-25 21:59:00,
2013-06-25 18:00:00,90.4,69.2,29.68,North,0,0.0,0.0,50,0.00,,,0.00,WUHU216HW,2013-06-25 22:00:00,
2013-06-25 18:02:00,90.2,69.0,29.68,North,0,0.0,0.0,50,0.00,,,0.00,WUHU216HW,2013-06-25 22:02:00,
2013-06-25 18:03:00,90.2,69.6,29.68,North,0,0.0,0.0,51,0.00,,,0.00,WUHU216HW,2013-06-25 22:03:00,
2013-06-25 18:05:00,89.6,69.1,29.68,North,0,0.0,0.0,51,0.00,,,0.00,WUHU216HW,2013-06-25 22:05:00,
2013-06-25 18:07:00,89.6,69.7,29.68,North,0,0.0,0.0,52,0.00,,,0.00,WUHU216HW,2013-06-25 22:07:00,
2013-06-25 18:08:00,89.5,69.5,29.68,North,0,0.0,0.0,52,0.00,,,0.00,WUHU216HW,2013-06-25 22:08:00,
2013-06-25 18:09:00,89.5,69.5,29.69,North,0,0.0,0.0,52,0.00,,,0.00,WUHU216HW,2013-06-25 22:09:00,
2013-06-25 18:10:00,89.5,69.5,29.69,North,0,0.0,0.0,52,0.00,,,0.00,WUHU216HW,2013-06-25 22:10:00,
2013-06-25 18:11:00,89.1,69.2,29.69,North,0,0.0,0.0,52,0.00,,,0.00,WUHU216HW,2013-06-25 22:11:00,
2013-06-25 18:12:00,88.9,68.5,29.69,North,0,0.0,0.0,51,0.00,,,0.00,WUHU216HW,2013-06-25 22:12:00,
2013-06-25 18:14:00,88.6,67.6,29.69,North,0,0.0,0.0,50,0.00,,,0.00,WUHU216HW,2013-06-25 22:14:00,
2013-06-25 18:15:00,88.2,67.9,29.69,North,0,0.0,0.0,51,0.00,,,0.00,WUHU216HW,2013-06-25 22:15:00,
2013-06-25 18:16:00,88.0,67.7,29.68,North,0,0.0,0.0,51,0.00,,,0.00,WUHU216HW,2013-06-25 22:16:00,
2013-06-25 18:17:00,87.5,66.6,29.69,North,0,0.0,0.0,50,0.00,,,0.00,WUHU216HW,2013-06-25 22:17:00,
2013-06-25 18:19:00,87.3,67.1,29.69,North,0,0.0,0.0,51,0.00,,,0.00,WUHU216HW,2013-06-25 22:19:00,
2013-06-25 18:20:00,86.9,66.7,29.68,North,0,0.0,0.0,51,0.00,,,0.00,WUHU216HW,2013-06-25 22:20:00,
2013-06-25 18:21:00,86.9,66.7,29.68,North,0,0.0,0.0,51,0.00,,,0.00,WUHU216HW,2013-06-25 22:21:00,
2013-06-25 18:22:00,86.9,66.7,29.68,North,0,0.0,0.0,51,0.00,,,0.00,WUHU216HW,2013-06-25 22:22:00,
2013-06-25 18:24:00,86.9,66.7,29.68,North,0,0.0,0.0,51,0.00,,,0.00,WUHU216HW,2013-06-25 22:24:00,
2013-06-25 18:25:00,85.7,66.6,29.68,North,0,0.0,0.0,53,0.00,,,0.00,WUHU216HW,2013-06-25 22:25:00,
2013-06-25 18:26:00,85.5,67.0,29.68,North,0,0.0,0.0,54,0.00,,,0.00,WUHU216HW,2013-06-25 22:26:00,
2013-06-25 18:27:00,85.1,67.7,29.68,North,0,0.0,0.0,56,0.00,,,0.00,WUHU216HW,2013-06-25 22:27:00,
2013-06-25 18:29:00,85.0,67.5,29.68,North,0,0.0,0.0,56,0.00,,,0.00,WUHU216HW,2013-06-25 22:29:00,
2013-06-25 18:30:00,85.0,67.5,29.68,North,0,0.0,0.0,56,0.00,,,0.00,WUHU216HW,2013-06-25 22:30:00,
2013-06-25 18:31:00,84.4,68.0,29.68,North,0,0.0,0.0,58,0.00,,,0.00,WUHU216HW,2013-06-25 22:31:00,
2013-06-25 18:33:00,84.1,67.7,29.68,North,0,0.0,0.0,58,0.00,,,0.00,WUHU216HW,2013-06-25 22:33:00,
2013-06-25 18:34:00,83.7,67.9,29.68,North,0,0.0,0.0,59,0.00,,,0.00,WUHU216HW,2013-06-25 22:34:00,
2013-06-25 18:35:00,83.7,67.3,29.68,North,0,0.0,0.0,58,0.00,,,0.00,WUHU216HW,2013-06-25 22:35:00,
2013-06-25 18:36:00,83.5,67.7,29.68,North,0,0.0,0.0,59,0.00,,,0.00,WUHU216HW,2013-06-25 22:36:00,
2013-06-25 18:38:00,83.5,67.1,29.68,North,0,0.0,0.0,58,0.00,,,0.00,WUHU216HW,2013-06-25 22:38:00,
2013-06-25 18:40:00,83.3,66.5,29.68,North,0,0.0,0.0,57,0.00,,,0.00,WUHU216HW,2013-06-25 22:40:00,
2013-06-25 18:41:00,83.3,66.5,29.68,North,0,0.0,0.0,57,0.00,,,0.00,WUHU216HW,2013-06-25 22:41:00,
2013-06-25 18:42:00,83.3,66.5,29.68,North,0,0.0,0.0,57,0.00,,,0.00,WUHU216HW,2013-06-25 22:42:00,
2013-06-25 18:43:00,83.2,67.3,29.68,North,0,0.0,0.0,59,0.00,,,0.00,WUHU216HW,2013-06-25 22:43:00,
2013-06-25 18:45:00,83.2,68.3,29.68,North,0,0.0,0.0,61,0.00,,,0.00,WUHU216HW,2013-06-25 22:45:00,
2013-06-25 18:46:00,82.8,68.4,29.68,North,0,0.0,0.0,62,0.00,,,0.00,WUHU216HW,2013-06-25 22:46:00,
2013-06-25 18:47:00,82.8,68.0,29.68,North,0,0.0,0.0,61,0.00,,,0.00,WUHU216HW,2013-06-25 22:47:00,
2013-06-25 18:48:00,82.4,68.0,29.68,North,0,0.0,0.0,62,0.00,,,0.00,WUHU216HW,2013-06-25 22:48:00,
2013-06-25 18:50:00,82.1,68.6,29.68,North,0,0.0,0.0,64,0.00,,,0.00,WUHU216HW,2013-06-25 22:50:00,
2013-06-25 18:51:00,81.7,67.9,29.68,North,0,0.0,0.0,63,0.00,,,0.00,WUHU216HW,2013-06-25 22:51:00,
2013-06-25 18:52:00,81.5,68.1,29.68,North,0,0.0,0.0,64,0.00,,,0.00,WUHU216HW,2013-06-25 22:52:00,
2013-06-25 18:53:00,81.4,68.4,29.68,North,0,0.0,0.0,65,0.00,,,0.00,WUHU216HW,2013-06-25 22:53:00,
2013-06-25 18:56:00,81.0,68.1,29.68,North,0,0.0,0.0,65,0.00,,,0.00,WUHU216HW,2013-06-25 22:56:00,
2013-06-25 18:57:00,80.6,67.8,29.68,North,0,0.0,0.0,65,0.00,,,0.00,WUHU216HW,2013-06-25 22:57:00,
2013-06-25 18:58:00,80.3,67.9,29.68,North,0,0.0,0.0,66,0.00,,,0.00,WUHU216HW,2013-06-25 22:58:00,
2013-06-25 19:01:00,79.9,67.5,29.67,North,0,0.0,0.0,66,0.00,,,0.00,WUHU216HW,2013-06-25 23:01:00,
2013-06-25 19:02:00,79.6,67.1,29.67,North,0,0.0,0.0,66,0.00,,,0.00,WUHU216HW,2013-06-25 23:02:00,
2013-06-25 19:04:00,79.4,67.4,29.67,North,0,0.0,0.0,67,0.00,,,0.00,WUHU216HW,2013-06-25 23:04:00,
2013-06-25 19:06:00,79.2,67.2,29.67,North,0,0.0,0.0,67,0.00,,,0.00,WUHU216HW,2013-06-25 23:06:00,
2013-06-25 19:07:00,79.0,67.2,29.67,North,0,0.0,0.0,67,0.00,,,0.00,WUHU216HW,2013-06-25 23:07:00,
2013-06-25 19:09:00,78.8,67.0,29.67,North,0,0.0,0.0,67,0.00,,,0.00,WUHU216HW,2013-06-25 23:09:00,
2013-06-25 19:11:00,78.8,66.5,29.67,North,0,0.0,0.0,66,0.00,,,0.00,WUHU216HW,2013-06-25 23:11:00,
2013-06-25 19:12:00,78.8,67.0,29.67,North,0,0.0,0.0,67,0.00,,,0.00,WUHU216HW,2013-06-25 23:12:00,
2013-06-25 19:15:00,78.7,66.3,29.66,North,0,0.0,0.0,66,0.00,,,0.00,WUHU216HW,2013-06-25 23:15:00,
2013-06-25 19:16:00,78.7,66.8,29.66,North,0,0.0,0.0,67,0.00,,,0.00,WUHU216HW,2013-06-25 23:16:00,
2013-06-25 19:17:00,78.7,67.2,29.67,North,0,0.0,0.0,68,0.00,,,0.00,WUHU216HW,2013-06-25 23:17:00,
2013-06-25 19:18:00,78.7,67.2,29.67,North,0,0.0,0.0,68,0.00,,,0.00,WUHU216HW,2013-06-25 23:18:00,
2013-06-25 19:20:00,78.5,67.1,29.67,North,0,0.0,0.0,68,0.00,,,0.00,WUHU216HW,2013-06-25 23:20:00,
2013-06-25 19:21:00,78.5,67.1,29.67,North,0,0.0,0.0,68,0.00,,,0.00,WUHU216HW,2013-06-25 23:21:00,
2013-06-25 19:23:00,78.3,67.3,29.67,North,0,0.0,0.0,69,0.00,,,0.00,WUHU216HW,2013-06-25 23:23:00,
2013-06-25 19:25:00,78.1,66.7,29.67,North,0,0.0,0.0,68,0.00,,,0.00,WUHU216HW,2013-06-25 23:25:00,
2013-06-25 19:26:00,78.1,66.7,29.67,North,0,0.0,0.0,68,0.00,,,0.00,WUHU216HW,2013-06-25 23:26:00,
2013-06-25 19:28:00,78.1,66.7,29.67,North,0,0.0,0.0,68,0.00,,,0.00,WUHU216HW,2013-06-25 23:28:00,
2013-06-25 19:31:00,77.8,66.3,29.67,North,0,0.0,0.0,68,0.00,,,0.00,WUHU216HW,2013-06-25 23:31:00,
2013-06-25 19:32:00,77.8,66.3,29.66,North,0,0.0,0.0,68,0.00,,,0.00,WUHU216HW,2013-06-25 23:32:00,
2013-06-25 19:33:00,77.8,66.8,29.67,North,0,0.0,0.0,69,0.00,,,0.00,WUHU216HW,2013-06-25 23:33:00,
2013-06-25 19:36:00,77.8,66.8,29.67,North,0,0.0,0.0,69,0.00,,,0.00,WUHU216HW,2013-06-25 23:36:00,
2013-06-25 19:37:00,77.6,66.6,29.67,North,0,0.0,0.0,69,0.00,,,0.00,WUHU216HW,2013-06-25 23:37:00,
2013-06-25 19:38:00,77.6,66.6,29.67,North,0,0.0,0.0,69,0.00,,,0.00,WUHU216HW,2013-06-25 23:38:00,
2013-06-25 19:39:00,77.6,66.6,29.67,North,0,0.0,0.0,69,0.00,,,0.00,WUHU216HW,2013-06-25 23:39:00,
2013-06-25 19:41:00,77.4,67.3,29.67,North,0,0.0,0.0,71,0.00,,,0.00,WUHU216HW,2013-06-25 23:41:00,
2013-06-25 19:42:00,77.4,67.0,29.67,North,0,0.0,0.0,70,0.00,,,0.00,WUHU216HW,2013-06-25 23:42:00,
2013-06-25 19:43:00,77.4,67.0,29.67,North,0,0.0,0.0,70,0.00,,,0.00,WUHU216HW,2013-06-25 23:43:00,
2013-06-25 19:44:00,77.4,67.3,29.67,North,0,0.0,0.0,71,0.00,,,0.00,WUHU216HW,2013-06-25 23:44:00,
2013-06-25 19:46:00,77.2,67.1,29.67,North,0,0.0,0.0,71,0.00,,,0.00,WUHU216HW,2013-06-25 23:46:00,
2013-06-25 19:47:00,77.2,67.1,29.67,North,0,0.0,0.0,71,0.00,,,0.00,WUHU216HW,2013-06-25 23:47:00,
2013-06-25 19:48:00,77.0,67.0,29.67,North,0,0.0,0.0,71,0.00,,,0.00,WUHU216HW,2013-06-25 23:48:00,
2013-06-25 19:49:00,77.0,67.0,29.67,North,0,0.0,0.0,71,0.00,,,0.00,WUHU216HW,2013-06-25 23:49:00,
2013-06-25 19:51:00,76.7,67.0,29.67,North,0,0.0,0.0,72,0.00,,,0.00,WUHU216HW,2013-06-25 23:51:00,
2013-06-25 19:52:00,76.9,67.1,29.67,North,0,0.0,0.0,72,0.00,,,0.00,WUHU216HW,2013-06-25 23:52:00,
2013-06-25 19:53:00,76.9,67.1,29.67,North,0,0.0,0.0,72,0.00,,,0.00,WUHU216HW,2013-06-25 23:53:00,
2013-06-25 19:54:00,76.9,67.1,29.67,North,0,0.0,0.0,72,0.00,,,0.00,WUHU216HW,2013-06-25 23:54:00,
2013-06-25 19:55:00,76.9,67.1,29.67,North,0,0.0,0.0,72,0.00,,,0.00,WUHU216HW,2013-06-25 23:55:00,
2013-06-25 19:56:00,76.7,67.0,29.67,North,0,0.0,0.0,72,0.00,,,0.00,WUHU216HW,2013-06-25 23:56:00,
2013-06-25 19:57:00,76.5,66.4,29.67,North,0,0.0,0.0,71,0.00,,,0.00,WUHU216HW,2013-06-25 23:57:00,
2013-06-25 19:58:00,76.5,66.4,29.67,North,0,0.0,0.0,71,0.00,,,0.00,WUHU216HW,2013-06-25 23:58:00,
2013-06-25 19:59:00,76.5,66.4,29.67,North,0,0.0,0.0,71,0.00,,,0.00,WUHU216HW,2013-06-25 23:59:00,
2013-06-25 20:00:00,76.5,66.4,29.67,North,0,0.0,0.0,71,0.00,,,0.00,WUHU216HW,2013-06-26 00:00:00,
2013-06-25 20:01:00,76.7,66.6,29.68,North,0,0.0,0.0,71,0.00,,,0.00,WUHU216HW,2013-06-26 00:01:00,
2013-06-25 20:02:00,76.5,66.4,29.67,North,0,0.0,0.0,71,0.00,,,0.00,WUHU216HW,2013-06-26 00:02:00,
2013-06-25 20:03:00,76.5,66.9,29.68,North,0,0.0,0.0,72,0.00,,,0.00,WUHU216HW,2013-06-26 00:03:00,
2013-06-25 20:04:00,76.5,66.9,29.68,North,0,0.0,0.0,72,0.00,,,0.00,WUHU216HW,2013-06-26 00:04:00,
2013-06-25 20:05:00,76.3,66.7,29.67,North,0,0.0,0.0,72,0.00,,,0.00,WUHU216HW,2013-06-26 00:05:00,
2013-06-25 20:07:00,76.5,66.9,29.67,North,0,0.0,0.0,72,0.00,,,0.00,WUHU216HW,2013-06-26 00:07:00,
2013-06-25 20:08:00,76.5,66.9,29.68,North,0,0.0,0.0,72,0.00,,,0.00,WUHU216HW,2013-06-26 00:08:00,
2013-06-25 20:09:00,76.3,66.2,29.68,North,0,0.0,0.0,71,0.00,,,0.00,WUHU216HW,2013-06-26 00:09:00,
2013-06-25 20:10:00,76.5,66.9,29.68,North,0,0.0,0.0,72,0.00,,,0.00,WUHU216HW,2013-06-26 00:10:00,
2013-06-25 20:12:00,76.3,66.7,29.68,North,0,0.0,0.0,72,0.00,,,0.00,WUHU216HW,2013-06-26 00:12:00,
2013-06-25 20:13:00,76.3,66.7,29.68,North,0,0.0,0.0,72,0.00,,,0.00,WUHU216HW,2013-06-26 00:13:00,
2013-06-25 20:15:00,76.3,66.7,29.68,North,0,0.0,0.0,72,0.00,,,0.00,WUHU216HW,2013-06-26 00:15:00,
2013-06-25 20:17:00,76.3,66.7,29.68,North,0,0.0,0.0,72,0.00,,,0.00,WUHU216HW,2013-06-26 00:17:00,
2013-06-25 20:18:00,76.3,66.2,29.68,North,0,0.0,0.0,71,0.00,,,0.00,WUHU216HW,2013-06-26 00:18:00,
2013-06-25 20:20:00,76.3,66.7,29.68,North,0,0.0,0.0,72,0.00,,,0.00,WUHU216HW,2013-06-26 00:20:00,
2013-06-25 20:21:00,76.5,66.9,29.68,North,0,0.0,0.0,72,0.00,,,0.00,WUHU216HW,2013-06-26 00:21:00,
2013-06-25 20:22:00,76.5,66.4,29.68,North,0,0.0,0.0,71,0.00,,,0.00,WUHU216HW,2013-06-26 00:22:00,
2013-06-25 20:23:00,76.5,66.9,29.68,North,0,0.0,0.0,72,0.00,,,0.00,WUHU216HW,2013-06-26 00:23:00,
2013-06-25 20:25:00,76.5,66.9,29.68,North,0,0.0,0.0,72,0.00,,,0.00,WUHU216HW,2013-06-26 00:25:00,
2013-06-25 20:26:00,76.5,66.4,29.68,North,0,0.0,0.0,71,0.00,,,0.00,WUHU216HW,2013-06-26 00:26:00,
2013-06-25 20:27:00,76.5,66.9,29.68,North,0,0.0,0.0,72,0.00,,,0.00,WUHU216HW,2013-06-26 00:27:00,
2013-06-25 20:28:00,76.5,66.9,29.68,North,0,0.0,0.0,72,0.00,,,0.00,WUHU216HW,2013-06-26 00:28:00,
2013-06-25 20:30:00,76.3,66.2,29.68,North,0,0.0,0.0,71,0.00,,,0.00,WUHU216HW,2013-06-26 00:30:00,
2013-06-25 20:32:00,76.3,66.2,29.68,North,0,0.0,0.0,71,0.00,,,0.00,WUHU216HW,2013-06-26 00:32:00,
2013-06-25 20:33:00,76.3,66.2,29.68,North,0,0.0,0.0,71,0.00,,,0.00,WUHU216HW,2013-06-26 00:33:00,
2013-06-25 20:34:00,76.3,66.7,29.68,North,0,0.0,0.0,72,0.00,,,0.00,WUHU216HW,2013-06-26 00:34:00,
2013-06-25 20:35:00,76.3,66.2,29.68,North,0,0.0,0.0,71,0.00,,,0.00,WUHU216HW,2013-06-26 00:35:00,
2013-06-25 20:37:00,76.3,66.7,29.68,North,0,0.0,0.0,72,0.00,,,0.00,WUHU216HW,2013-06-26 00:37:00,
2013-06-25 20:38:00,76.3,66.7,29.68,North,0,0.0,0.0,72,0.00,,,0.00,WUHU216HW,2013-06-26 00:38:00,
2013-06-25 20:39:00,76.3,66.7,29.68,North,0,0.0,0.0,72,0.00,,,0.00,WUHU216HW,2013-06-26 00:39:00,
2013-06-25 20:41:00,76.3,66.2,29.68,North,0,0.0,0.0,71,0.00,,,0.00,WUHU216HW,2013-06-26 00:41:00,
2013-06-25 20:42:00,76.3,66.2,29.68,North,0,0.0,0.0,71,0.00,,,0.00,WUHU216HW,2013-06-26 00:42:00,
2013-06-25 20:43:00,76.3,66.2,29.68,North,0,0.0,0.0,71,0.00,,,0.00,WUHU216HW,2013-06-26 00:43:00,
2013-06-25 20:44:00,76.3,66.2,29.68,North,0,0.0,0.0,71,0.00,,,0.00,WUHU216HW,2013-06-26 00:44:00,
2013-06-25 20:46:00,76.3,66.2,29.68,North,0,0.0,0.0,71,0.00,,,0.00,WUHU216HW,2013-06-26 00:46:00,
2013-06-25 20:47:00,76.3,66.2,29.68,North,0,0.0,0.0,71,0.00,,,0.00,WUHU216HW,2013-06-26 00:47:00,
2013-06-25 20:49:00,76.3,66.2,29.68,North,0,0.0,0.0,71,0.00,,,0.00,WUHU216HW,2013-06-26 00:49:00,
2013-06-25 20:51:00,76.3,66.2,29.68,North,0,0.0,0.0,71,0.00,,,0.00,WUHU216HW,2013-06-26 00:51:00,
2013-06-25 20:52:00,76.3,66.2,29.68,North,0,0.0,0.0,71,0.00,,,0.00,WUHU216HW,2013-06-26 00:52:00,
2013-06-25 20:54:00,76.3,66.2,29.68,North,0,0.0,0.0,71,0.00,,,0.00,WUHU216HW,2013-06-26 00:54:00,
2013-06-25 20:56:00,76.3,66.2,29.68,North,0,0.0,0.0,71,0.00,,,0.00,WUHU216HW,2013-06-26 00:56:00,
2013-06-25 20:58:00,76.1,66.1,29.68,North,0,0.0,0.0,71,0.00,,,0.00,WUHU216HW,2013-06-26 00:58:00,
2013-06-25 20:59:00,76.1,66.1,29.68,North,0,0.0,0.0,71,0.00,,,0.00,WUHU216HW,2013-06-26 00:59:00,
2013-06-25 21:01:00,76.1,66.9,29.69,North,0,0.0,0.0,73,0.00,,,0.00,WUHU216HW,2013-06-26 01:01:00,
2013-06-25 21:03:00,76.1,66.5,29.68,North,0,0.0,0.0,72,0.00,,,0.00,WUHU216HW,2013-06-26 01:03:00,
2013-06-25 21:04:00,76.0,66.3,29.68,North,0,0.0,0.0,72,0.00,,,0.00,WUHU216HW,2013-06-26 01:04:00,
2013-06-25 21:06:00,76.0,66.3,29.68,North,0,0.0,0.0,72,0.00,,,0.00,WUHU216HW,2013-06-26 01:06:00,
2013-06-25 21:09:00,76.0,66.3,29.69,North,0,0.0,0.0,72,0.00,,,0.00,WUHU216HW,2013-06-26 01:09:00,
2013-06-25 21:10:00,76.0,66.3,29.69,North,0,0.0,0.0,72,0.00,,,0.00,WUHU216HW,2013-06-26 01:10:00,
2013-06-25 21:12:00,76.1,66.9,29.69,North,0,0.0,0.0,73,0.00,,,0.00,WUHU216HW,2013-06-26 01:12:00,
2013-06-25 21:14:00,76.1,66.5,29.69,North,0,0.0,0.0,72,0.00,,,0.00,WUHU216HW,2013-06-26 01:14:00,
2013-06-25 21:15:00,76.1,66.5,29.69,North,0,0.0,0.0,72,0.00,,,0.00,WUHU216HW,2013-06-26 01:15:00,
2013-06-25 21:17:00,76.1,66.5,29.69,North,0,0.0,0.0,72,0.00,,,0.00,WUHU216HW,2013-06-26 01:17:00,
2013-06-25 21:19:00,76.3,66.7,29.69,North,0,0.0,0.0,72,0.00,,,0.00,WUHU216HW,2013-06-26 01:19:00,
2013-06-25 21:20:00,76.3,66.7,29.69,North,0,0.0,0.0,72,0.00,,,0.00,WUHU216HW,2013-06-26 01:20:00,
2013-06-25 21:22:00,76.3,67.1,29.69,North,0,0.0,0.0,73,0.00,,,0.00,WUHU216HW,2013-06-26 01:22:00,
2013-06-25 21:24:00,76.3,66.7,29.69,North,0,0.0,0.0,72,0.00,,,0.00,WUHU216HW,2013-06-26 01:24:00,
2013-06-25 21:25:00,76.3,66.7,29.69,North,0,0.0,0.0,72,0.00,,,0.00,WUHU216HW,2013-06-26 01:25:00,
2013-06-25 21:27:00,76.5,66.9,29.69,North,0,0.0,0.0,72,0.00,,,0.00,WUHU216HW,2013-06-26 01:27:00,
2013-06-25 21:29:00,76.5,66.9,29.69,North,0,0.0,0.0,72,0.00,,,0.00,WUHU216HW,2013-06-26 01:29:00,
2013-06-25 21:30:00,76.5,66.9,29.70,North,0,0.0,0.0,72,0.00,,,0.00,WUHU216HW,2013-06-26 01:30:00,
2013-06-25 21:31:00,76.5,66.9,29.69,North,0,0.0,0.0,72,0.00,,,0.00,WUHU216HW,2013-06-26 01:31:00,
2013-06-25 21:33:00,76.5,66.4,29.69,North,0,0.0,0.0,71,0.00,,,0.00,WUHU216HW,2013-06-26 01:33:00,
2013-06-25 21:34:00,76.5,66.4,29.69,North,0,0.0,0.0,71,0.00,,,0.00,WUHU216HW,2013-06-26 01:34:00,
2013-06-25 21:35:00,76.5,66.4,29.69,North,0,0.0,0.0,71,0.00,,,0.00,WUHU216HW,2013-06-26 01:35:00,
2013-06-25 21:36:00,76.5,66.4,29.70,North,0,0.0,0.0,71,0.00,,,0.00,WUHU216HW,2013-06-26 01:36:00,
2013-06-25 21:38:00,76.5,66.4,29.69,North,0,0.0,0.0,71,0.00,,,0.00,WUHU216HW,2013-06-26 01:38:00,
2013-06-25 21:39:00,76.5,66.4,29.70,North,0,0.0,0.0,71,0.00,,,0.00,WUHU216HW,2013-06-26 01:39:00,
2013-06-25 21:40:00,76.5,66.4,29.70,North,0,0.0,0.0,71,0.00,,,0.00,WUHU216HW,2013-06-26 01:40:00,
2013-06-25 21:41:00,76.5,66.9,29.70,North,0,0.0,0.0,72,0.00,,,0.00,WUHU216HW,2013-06-26 01:41:00,
2013-06-25 21:43:00,76.3,66.2,29.70,North,0,0.0,0.0,71,0.00,,,0.00,WUHU216HW,2013-06-26 01:43:00,
2013-06-25 21:44:00,76.3,66.2,29.70,North,0,0.0,0.0,71,0.00,,,0.00,WUHU216HW,2013-06-26 01:44:00,
2013-06-25 21:45:00,76.3,66.2,29.70,North,0,0.0,0.0,71,0.00,,,0.00,WUHU216HW,2013-06-26 01:45:00,
2013-06-25 21:46:00,76.3,66.2,29.70,North,0,0.0,0.0,71,0.00,,,0.00,WUHU216HW,2013-06-26 01:46:00,
2013-06-25 21:48:00,76.3,66.7,29.70,North,0,0.0,0.0,72,0.00,,,0.00,WUHU216HW,2013-06-26 01:48:00,
2013-06-25 21:49:00,76.3,66.7,29.70,North,0,0.0,0.0,72,0.00,,,0.00,WUHU216HW,2013-06-26 01:49:00,
2013-06-25 21:51:00,76.3,66.7,29.70,North,0,0.0,0.0,72,0.00,,,0.00,WUHU216HW,2013-06-26 01:51:00,
2013-06-25 21:53:00,76.3,66.7,29.70,North,0,0.0,0.0,72,0.00,,,0.00,WUHU216HW,2013-06-26 01:53:00,
2013-06-25 21:54:00,76.3,66.7,29.70,North,0,0.0,0.0,72,0.00,,,0.00,WUHU216HW,2013-06-26 01:54:00,
2013-06-25 21:56:00,76.1,66.5,29.70,North,0,0.0,0.0,72,0.00,,,0.00,WUHU216HW,2013-06-26 01:56:00,
2013-06-25 21:58:00,76.1,66.9,29.70,North,0,0.0,0.0,73,0.00,,,0.00,WUHU216HW,2013-06-26 01:58:00,
2013-06-25 21:59:00,76.1,66.9,29.70,North,0,0.0,0.0,73,0.00,,,0.00,WUHU216HW,2013-06-26 01:59:00,
2013-06-25 22:01:00,76.1,66.9,29.70,North,0,0.0,0.0,73,0.00,,,0.00,WUHU216HW,2013-06-26 02:01:00,
2013-06-25 22:04:00,76.1,66.5,29.70,North,0,0.0,0.0,72,0.00,,,0.00,WUHU216HW,2013-06-26 02:04:00,
2013-06-25 22:06:00,76.1,66.5,29.70,North,0,0.0,0.0,72,0.00,,,0.00,WUHU216HW,2013-06-26 02:06:00,
2013-06-25 22:07:00,76.1,66.5,29.70,North,0,0.0,0.0,72,0.00,,,0.00,WUHU216HW,2013-06-26 02:07:00,
2013-06-25 22:09:00,76.1,66.5,29.70,North,0,0.0,0.0,72,0.00,,,0.00,WUHU216HW,2013-06-26 02:09:00,
2013-06-25 22:10:00,76.1,66.5,29.70,North,0,0.0,0.0,72,0.00,,,0.00,WUHU216HW,2013-06-26 02:10:00,
2013-06-25 22:11:00,76.1,66.5,29.70,North,0,0.0,0.0,72,0.00,,,0.00,WUHU216HW,2013-06-26 02:11:00,
2013-06-25 22:12:00,76.1,66.5,29.70,North,0,0.0,0.0,72,0.00,,,0.00,WUHU216HW,2013-06-26 02:12:00,
2013-06-25 22:14:00,76.0,66.3,29.70,North,0,0.0,0.0,72,0.00,,,0.00,WUHU216HW,2013-06-26 02:14:00,
2013-06-25 22:15:00,76.0,66.3,29.70,North,0,0.0,0.0,72,0.00,,,0.00,WUHU216HW,2013-06-26 02:15:00,
2013-06-25 22:17:00,76.0,66.3,29.70,North,0,0.0,0.0,72,0.00,,,0.00,WUHU216HW,2013-06-26 02:17:00,
2013-06-25 22:19:00,76.0,66.7,29.70,North,0,0.0,0.0,73,0.00,,,0.00,WUHU216HW,2013-06-26 02:19:00,
2013-06-25 22:21:00,76.1,66.5,29.70,North,0,0.0,0.0,72,0.00,,,0.00,WUHU216HW,2013-06-26 02:21:00,
2013-06-25 22:22:00,76.1,66.9,29.70,North,0,0.0,0.0,73,0.00,,,0.00,WUHU216HW,2013-06-26 02:22:00,
2013-06-25 22:24:00,76.1,66.5,29.70,North,0,0.0,0.0,72,0.00,,,0.00,WUHU216HW,2013-06-26 02:24:00,
2013-06-25 22:26:00,76.1,66.5,29.70,North,0,0.0,0.0,72,0.00,,,0.00,WUHU216HW,2013-06-26 02:26:00,
2013-06-25 22:27:00,76.1,66.5,29.70,North,0,0.0,0.0,72,0.00,,,0.00,WUHU216HW,2013-06-26 02:27:00,
2013-06-25 22:30:00,76.3,67.1,29.70,North,0,0.0,0.0,73,0.00,,,0.00,WUHU216HW,2013-06-26 02:30:00,
2013-06-25 22:31:00,76.3,67.1,29.70,North,0,0.0,0.0,73,0.00,,,0.00,WUHU216HW,2013-06-26 02:31:00,
2013-06-25 22:32:00,76.3,67.1,29.70,North,0,0.0,0.0,73,0.00,,,0.00,WUHU216HW,2013-06-26 02:32:00,
2013-06-25 22:33:00,76.3,67.1,29.70,North,0,0.0,0.0,73,0.00,,,0.00,WUHU216HW,2013-06-26 02:33:00,
2013-06-25 22:34:00,76.3,67.1,29.70,North,0,0.0,0.0,73,0.00,,,0.00,WUHU216HW,2013-06-26 02:34:00,
2013-06-25 22:35:00,76.5,67.6,29.70,North,0,0.0,0.0,74,0.00,,,0.00,WUHU216HW,2013-06-26 02:35:00,
2013-06-25 22:36:00,76.5,67.2,29.70,North,0,0.0,0.0,73,0.00,,,0.00,WUHU216HW,2013-06-26 02:36:00,
2013-06-25 22:37:00,76.5,67.2,29.70,North,0,0.0,0.0,73,0.00,,,0.00,WUHU216HW,2013-06-26 02:37:00,
2013-06-25 22:38:00,76.7,67.8,29.70,North,0,0.0,0.0,74,0.00,,,0.00,WUHU216HW,2013-06-26 02:38:00,
2013-06-25 22:39:00,76.7,67.4,29.70,North,0,0.0,0.0,73,0.00,,,0.00,WUHU216HW,2013-06-26 02:39:00,
2013-06-25 22:40:00,76.7,67.8,29.70,North,0,0.0,0.0,74,0.00,,,0.00,WUHU216HW,2013-06-26 02:40:00,
2013-06-25 22:41:00,76.7,67.4,29.70,North,0,0.0,0.0,73,0.00,,,0.00,WUHU216HW,2013-06-26 02:41:00,
2013-06-25 22:42:00,76.9,67.6,29.70,North,0,0.0,0.0,73,0.00,,,0.00,WUHU216HW,2013-06-26 02:42:00,
2013-06-25 22:43:00,76.9,67.6,29.70,North,0,0.0,0.0,73,0.00,,,0.00,WUHU216HW,2013-06-26 02:43:00,
2013-06-25 22:44:00,76.9,67.6,29.70,North,0,0.0,0.0,73,0.00,,,0.00,WUHU216HW,2013-06-26 02:44:00,
2013-06-25 22:45:00,76.9,67.6,29.70,North,0,0.0,0.0,73,0.00,,,0.00,WUHU216HW,2013-06-26 02:45:00,
2013-06-25 22:46:00,76.9,67.6,29.70,North,0,0.0,0.0,73,0.00,,,0.00,WUHU216HW,2013-06-26 02:46:00,
2013-06-25 22:47:00,77.0,67.8,29.69,North,0,0.0,0.0,73,0.00,,,0.00,WUHU216HW,2013-06-26 02:47:00,
2013-06-25 22:48:00,77.0,67.8,29.69,North,0,0.0,0.0,73,0.00,,,0.00,WUHU216HW,2013-06-26 02:48:00,
2013-06-25 22:49:00,77.0,67.8,29.69,North,0,0.0,0.0,73,0.00,,,0.00,WUHU216HW,2013-06-26 02:49:00,
2013-06-25 22:51:00,77.0,67.8,29.69,North,0,0.0,0.0,73,0.00,,,0.00,WUHU216HW,2013-06-26 02:51:00,
2013-06-25 22:52:00,77.2,67.9,29.69,North,0,0.0,0.0,73,0.00,,,0.00,WUHU216HW,2013-06-26 02:52:00,
2013-06-25 22:53:00,77.2,67.9,29.69,North,0,0.0,0.0,73,0.00,,,0.00,WUHU216HW,2013-06-26 02:53:00,
2013-06-25 22:55:00,77.2,67.9,29.69,North,0,0.0,0.0,73,0.00,,,0.00,WUHU216HW,2013-06-26 02:55:00,
2013-06-25 22:56:00,77.4,68.0,29.69,North,0,0.0,0.0,73,0.00,,,0.00,WUHU216HW,2013-06-26 02:56:00,
2013-06-25 22:58:00,77.4,67.7,29.69,North,0,0.0,0.0,72,0.00,,,0.00,WUHU216HW,2013-06-26 02:58:00,
2013-06-25 22:59:00,77.4,67.7,29.69,North,0,0.0,0.0,72,0.00,,,0.00,WUHU216HW,2013-06-26 02:59:00,
2013-06-25 23:00:00,77.4,67.7,29.69,North,0,0.0,0.0,72,0.00,,,0.00,WUHU216HW,2013-06-26 03:00:00,
2013-06-25 23:01:00,77.6,67.9,29.69,North,0,0.0,0.0,72,0.00,,,0.00,WUHU216HW,2013-06-26 03:01:00,
2013-06-25 23:02:00,77.6,67.9,29.69,North,0,0.0,0.0,72,0.00,,,0.00,WUHU216HW,2013-06-26 03:02:00,
2013-06-25 23:03:00,77.6,67.9,29.69,North,0,0.0,0.0,72,0.00,,,0.00,WUHU216HW,2013-06-26 03:03:00,
2013-06-25 23:04:00,77.6,67.9,29.68,North,0,0.0,0.0,72,0.00,,,0.00,WUHU216HW,2013-06-26 03:04:00,
2013-06-25 23:05:00,77.8,68.4,29.68,North,0,0.0,0.0,73,0.00,,,0.00,WUHU216HW,2013-06-26 03:05:00,
2013-06-25 23:06:00,77.8,68.1,29.68,North,0,0.0,0.0,72,0.00,,,0.00,WUHU216HW,2013-06-26 03:06:00,
2013-06-25 23:07:00,77.8,68.1,29.68,North,0,0.0,0.0,72,0.00,,,0.00,WUHU216HW,2013-06-26 03:07:00,
2013-06-25 23:08:00,77.9,68.6,29.68,North,0,0.0,0.0,73,0.00,,,0.00,WUHU216HW,2013-06-26 03:08:00,
2013-06-25 23:09:00,77.9,68.6,29.68,North,0,0.0,0.0,73,0.00,,,0.00,WUHU216HW,2013-06-26 03:09:00,
2013-06-25 23:10:00,77.9,68.2,29.68,North,0,0.0,0.0,72,0.00,,,0.00,WUHU216HW,2013-06-26 03:10:00,
2013-06-25 23:12:00,77.9,68.6,29.68,North,0,0.0,0.0,73,0.00,,,0.00,WUHU216HW,2013-06-26 03:12:00,
2013-06-25 23:14:00,78.1,68.8,29.68,North,0,0.0,0.0,73,0.00,,,0.00,WUHU216HW,2013-06-26 03:14:00,
2013-06-25 23:15:00,78.1,68.8,29.68,North,0,0.0,0.0,73,0.00,,,0.00,WUHU216HW,2013-06-26 03:15:00,
2013-06-25 23:17:00,78.1,68.8,29.68,North,0,0.0,0.0,73,0.00,,,0.00,WUHU216HW,2013-06-26 03:17:00,
2013-06-25 23:19:00,78.1,68.8,29.69,North,0,0.0,0.0,73,0.00,,,0.00,WUHU216HW,2013-06-26 03:19:00,
2013-06-25 23:20:00,78.1,68.8,29.68,North,0,0.0,0.0,73,0.00,,,0.00,WUHU216HW,2013-06-26 03:20:00,
2013-06-25 23:22:00,78.1,68.8,29.69,North,0,0.0,0.0,73,0.00,,,0.00,WUHU216HW,2013-06-26 03:22:00,
2013-06-25 23:23:00,78.1,68.8,29.69,North,0,0.0,0.0,73,0.00,,,0.00,WUHU216HW,2013-06-26 03:23:00,
2013-06-25 23:24:00,78.1,68.8,29.68,North,0,0.0,0.0,73,0.00,,,0.00,WUHU216HW,2013-06-26 03:24:00,
2013-06-25 23:25:00,77.9,68.6,29.68,North,0,0.0,0.0,73,0.00,,,0.00,WUHU216HW,2013-06-26 03:25:00,
2013-06-25 23:27:00,77.9,68.9,29.69,North,0,0.0,0.0,74,0.00,,,0.00,WUHU216HW,2013-06-26 03:27:00,
2013-06-25 23:28:00,77.9,68.6,29.69,North,0,0.0,0.0,73,0.00,,,0.00,WUHU216HW,2013-06-26 03:28:00,
2013-06-25 23:30:00,77.9,68.9,29.68,North,0,0.0,0.0,74,0.00,,,0.00,WUHU216HW,2013-06-26 03:30:00,
2013-06-25 23:31:00,77.9,68.9,29.68,North,0,0.0,0.0,74,0.00,,,0.00,WUHU216HW,2013-06-26 03:31:00,
2013-06-25 23:32:00,77.9,68.9,29.69,North,0,0.0,0.0,74,0.00,,,0.00,WUHU216HW,2013-06-26 03:32:00,
2013-06-25 23:34:00,77.9,69.3,29.69,North,0,0.0,0.0,75,0.00,,,0.00,WUHU216HW,2013-06-26 03:34:00,
2013-06-25 23:35:00,77.9,69.3,29.68,North,0,0.0,0.0,75,0.00,,,0.00,WUHU216HW,2013-06-26 03:35:00,
2013-06-25 23:36:00,77.9,69.3,29.68,North,0,0.0,0.0,75,0.00,,,0.00,WUHU216HW,2013-06-26 03:36:00,
2013-06-25 23:37:00,77.8,69.2,29.68,North,0,0.0,0.0,75,0.00,,,0.00,WUHU216HW,2013-06-26 03:37:00,
2013-06-25 23:39:00,77.8,69.2,29.68,North,0,0.0,0.0,75,0.00,,,0.00,WUHU216HW,2013-06-26 03:39:00,
2013-06-25 23:40:00,77.8,69.2,29.68,North,0,0.0,0.0,75,0.00,,,0.00,WUHU216HW,2013-06-26 03:40:00,
2013-06-25 23:41:00,77.8,69.2,29.68,North,0,0.0,0.0,75,0.00,,,0.00,WUHU216HW,2013-06-26 03:41:00,
2013-06-25 23:43:00,77.8,69.2,29.68,North,0,0.0,0.0,75,0.00,,,0.00,WUHU216HW,2013-06-26 03:43:00,
2013-06-25 23:44:00,77.8,69.2,29.68,North,0,0.0,0.0,75,0.00,,,0.00,WUHU216HW,2013-06-26 03:44:00,
2013-06-25 23:46:00,77.8,69.2,29.68,North,0,0.0,0.0,75,0.00,,,0.00,WUHU216HW,2013-06-26 03:46:00,
2013-06-25 23:48:00,77.8,69.2,29.68,North,0,0.0,0.0,75,0.00,,,0.00,WUHU216HW,2013-06-26 03:48:00,
2013-06-25 23:49:00,77.9,70.5,29.68,North,0,0.0,0.0,78,0.00,,,0.00,WUHU216HW,2013-06-26 03:49:00,
2013-06-25 23:51:00,78.1,70.3,29.68,North,0,0.0,0.0,77,0.00,,,0.00,WUHU216HW,2013-06-26 03:51:00,
2013-06-25 23:52:00,78.1,69.9,29.68,North,0,0.0,0.0,76,0.00,,,0.00,WUHU216HW,2013-06-26 03:52:00,
2013-06-25 23:53:00,78.1,70.3,29.68,North,0,0.0,0.0,77,0.00,,,0.00,WUHU216HW,2013-06-26 03:53:00,
2013-06-25 23:55:00,78.1,70.3,29.68,North,0,0.0,0.0,77,0.00,,,0.00,WUHU216HW,2013-06-26 03:55:00,
2013-06-25 23:56:00,78.3,70.5,29.68,North,0,0.0,0.0,77,0.00,,,0.00,WUHU216HW,2013-06-26 03:56:00,
2013-06-25 23:57:00,78.3,70.5,29.68,North,0,0.0,0.0,77,0.00,,,0.00,WUHU216HW,2013-06-26 03:57:00,
2013-06-25 23:58:00,78.5,70.7,29.68,North,0,0.0,0.0,77,0.00,,,0.00,WUHU216HW,2013-06-26 03:58:00,